GFSSGP_925_rhum_054.txt.gz
RH
19 20 28 17 16 15 14 9 6 6 11 34 53 44 56 48 60 57 83 65 59 86 89 89 89 88 90 93 86 75 67 54 52 50 54 53 63 78 86 76 78 83 82 82 81 80 60 40 48
31 22 12 12 17 18 10 8 11 11 17 29 38 42 33 66 54 54 68 84 70 84 87 95 93 92 92 94 92 80 64 54 53 51 50 51 77 84 84 82 76 81 83 83 82 71 36 42 49
19 16 13 15 17 15 11 9 9 11 10 15 25 29 51 77 75 68 72 89 84 82 83 82 86 93 95 96 88 78 66 58 52 46 50 62 85 88 88 88 72 78 84 84 76 39 36 40 46
16 11 12 14 10 8 8 8 7 8 7 12 14 46 68 64 69 77 74 86 79 75 82 72 89 96 96 96 84 74 64 53 50 52 66 79 84 86 90 88 85 75 84 78 41 36 35 33 41
12 10 13 12 11 10 6 6 6 8 10 13 27 46 83 80 91 94 83 70 78 82 91 93 89 96 94 96 83 70 57 54 57 66 76 80 78 78 82 87 89 65 60 43 38 36 33 29 32
14 11 13 12 11 8 7 22 21 17 14 13 19 30 82 87 96 100 96 89 85 94 100 97 99 100 97 91 83 72 61 65 66 78 79 78 74 77 80 85 85 50 44 41 38 35 33 28 27
13 12 13 11 9 16 16 25 25 34 64 46 35 61 82 89 99 100 100 100 100 98 99 100 98 95 95 86 86 87 82 82 84 82 74 78 82 82 79 81 71 43 43 41 36 35 35 31 28
9 10 12 9 11 19 25 24 45 28 79 72 55 64 79 93 100 100 99 100 100 100 95 91 87 87 89 84 78 82 82 84 85 72 75 86 86 82 78 74 49 44 43 39 38 39 39 36 34
8 13 14 13 11 18 22 26 60 44 42 61 76 84 83 96 99 99 99 100 99 100 99 89 86 82 89 78 65 74 76 86 75 65 64 72 78 75 73 56 44 44 42 40 42 43 42 39 34
10 13 15 9 10 12 11 15 44 27 31 57 57 78 84 84 81 98 99 99 100 99 100 99 92 88 89 90 70 70 80 83 67 56 50 49 61 67 65 49 46 45 42 43 45 46 45 44 42
10 13 11 9 11 11 13 47 53 61 54 56 54 80 84 78 74 94 100 100 100 100 100 100 99 96 85 81 74 75 64 70 57 57 56 55 64 54 47 50 50 48 45 46 47 49 54 54 47
11 9 9 9 10 14 17 58 62 59 65 64 65 75 74 66 78 91 99 100 100 100 100 100 96 94 91 74 55 52 66 62 62 60 57 61 62 52 50 51 50 48 52 49 50 57 57 54 52
10 10 9 9 10 14 16 22 47 46 64 66 68 66 64 73 87 96 99 100 100 100 100 100 100 92 88 80 84 81 78 70 66 62 58 68 63 59 52 60 58 56 59 52 54 58 58 56 51
10 10 11 10 12 14 17 58 62 84 59 63 62 59 59 73 84 90 93 99 100 99 95 98 82 77 75 71 77 84 85 70 68 68 69 68 57 63 58 61 61 57 57 58 56 57 57 55 51
10 12 11 13 13 16 17 36 62 73 61 57 52 44 51 62 76 82 89 92 98 100 92 98 97 96 97 83 95 88 66 58 57 54 68 61 63 61 60 61 58 57 57 58 56 55 55 52 48
14 12 14 14 17 18 28 56 46 37 50 47 41 41 58 50 62 73 83 86 87 94 97 93 96 94 98 97 84 71 68 51 63 59 55 65 65 62 61 61 63 59 59 59 58 58 57 53 45
14 16 13 20 19 21 40 67 61 41 45 34 37 40 46 46 56 69 75 77 79 84 88 93 88 81 74 76 64 60 51 48 63 58 60 59 60 66 62 65 63 62 63 63 60 61 56 52 44
16 15 13 12 17 16 18 54 70 59 30 28 33 35 42 42 49 56 62 66 66 69 74 74 74 72 66 64 66 63 49 54 54 44 53 63 68 72 74 70 67 66 67 65 62 60 58 53 46
15 14 14 16 18 19 24 24 44 37 26 28 30 33 37 40 44 52 54 58 57 60 67 68 68 68 69 74 67 68 74 64 56 50 53 67 68 73 70 70 71 72 69 64 64 62 59 52 43
17 17 15 12 16 16 13 17 37 36 53 27 29 32 35 36 43 52 52 54 59 65 65 65 65 59 64 74 75 64 60 61 56 53 63 65 71 78 83 76 72 75 70 64 66 64 62 53 45
16 16 15 20 22 16 14 15 13 30 37 23 26 26 29 33 43 48 51 55 55 66 70 70 70 66 69 75 74 62 51 54 58 57 59 59 70 73 78 76 70 72 70 67 68 67 62 57 52
19 12 14 19 21 22 18 25 14 15 18 22 23 25 28 30 37 44 47 52 54 55 59 61 64 66 74 69 64 57 52 47 48 49 54 59 67 70 75 73 72 70 72 69 70 68 65 59 54
18 17 18 15 17 18 20 28 20 16 18 20 23 22 24 26 33 41 44 48 51 51 56 57 57 58 60 68 67 63 52 47 43 47 49 62 72 74 78 76 74 73 74 73 70 69 66 61 57
15 19 21 19 20 33 20 24 30 21 20 19 18 21 20 22 29 34 40 41 46 49 52 56 55 55 55 66 65 60 56 51 48 47 52 62 71 73 72 79 75 75 78 77 73 70 66 63 61
18 22 36 40 39 42 21 23 21 24 22 15 19 18 21 22 24 29 36 40 42 45 49 53 55 53 53 52 54 55 56 62 54 49 54 65 74 79 82 81 79 79 81 79 76 72 69 65 70
24 24 37 55 64 44 39 32 20 18 17 13 12 14 15 22 25 26 28 35 39 44 49 50 51 53 50 51 51 56 59 59 63 62 54 61 70 74 74 78 82 81 82 80 79 71 72 69 73
24 29 20 29 42 54 43 31 22 18 15 11 12 13 16 17 22 24 24 26 34 40 46 52 51 50 48 50 50 56 59 74 71 78 66 62 67 73 75 83 83 82 82 84 79 72 72 77 87
19 20 32 28 54 58 30 27 27 20 14 12 12 15 17 19 19 21 22 25 28 37 43 49 52 50 50 50 58 70 68 67 67 61 79 79 77 85 92 87 87 86 86 84 80 78 85 88 82
20 25 30 28 29 49 50 33 25 20 14 14 14 14 15 18 24 23 23 22 25 31 41 50 53 51 52 62 67 73 62 65 64 84 87 86 92 96 91 93 94 94 90 87 82 88 91 87 93
17 23 26 43 38 37 54 43 16 19 14 15 15 13 14 17 25 27 27 25 26 30 39 47 53 54 56 64 78 74 73 76 83 87 89 94 96 96 95 95 95 94 93 89 93 94 93 92 86

GFSSGP_925_rhum_057.txt.gz
RH
16 19 24 30 35 30 30 21 14 18 31 47 45 32 53 62 63 94 83 78 66 56 47 84 86 86 94 80 68 57 55 51 49 48 59 78 82 78 72 76 78 78 80 74 70 74 70 57 59
17 28 34 29 28 34 26 15 15 14 32 40 42 35 55 84 61 76 87 67 69 56 45 62 90 83 91 83 72 60 56 53 51 48 61 80 83 71 73 74 74 77 78 72 66 50 51 51 51
16 20 26 27 33 33 25 15 11 11 12 27 33 64 68 71 68 74 82 63 62 82 91 86 86 82 92 87 77 71 61 58 50 49 73 82 80 66 67 70 74 77 77 70 52 42 47 47 47
28 21 22 25 27 19 18 11 11 10 8 15 57 72 73 74 76 90 90 84 89 91 93 90 90 87 95 94 82 65 62 56 50 60 82 85 84 70 66 70 71 74 70 52 32 36 44 44 38
29 24 26 27 24 16 14 20 19 26 35 47 40 78 76 75 96 82 81 84 92 98 86 87 80 80 77 99 92 76 62 50 52 73 86 87 87 81 67 62 56 46 36 33 28 27 38 40 36
22 23 29 26 19 14 22 22 29 55 40 54 63 74 90 90 98 99 80 87 82 96 91 88 83 82 95 98 98 76 74 64 66 76 87 88 86 86 80 54 46 39 35 31 28 24 28 35 35
22 24 25 20 15 20 23 24 57 63 62 55 70 81 85 86 100 98 64 80 86 93 100 98 99 100 100 100 94 82 79 85 82 77 83 84 87 86 85 50 43 40 35 31 30 25 23 30 35
19 18 20 18 16 24 21 24 46 52 66 57 63 70 78 94 98 99 90 97 96 100 100 100 100 100 94 89 85 74 80 86 78 78 79 79 87 85 84 49 43 39 34 36 36 31 29 34 34
14 20 22 18 17 23 22 32 50 52 62 66 77 70 78 95 100 100 98 100 100 100 100 97 96 86 84 82 64 68 80 84 77 84 82 81 83 74 84 46 44 39 37 40 41 36 31 34 37
17 22 19 13 14 16 36 46 48 54 66 73 90 90 93 100 98 100 99 99 100 100 100 100 96 92 85 83 62 71 73 77 75 79 75 75 69 66 61 47 44 39 42 45 45 41 42 42 41
15 18 14 12 14 15 26 37 47 52 64 71 74 93 90 92 97 99 100 100 100 100 100 100 98 95 90 84 74 59 63 69 64 72 72 66 55 62 48 48 46 42 45 47 47 48 56 54 43
15 13 11 11 13 15 27 49 76 72 86 77 85 81 80 85 90 99 100 100 99 100 100 100 99 90 82 81 69 67 59 62 62 64 66 57 51 48 43 48 46 44 46 47 50 58 57 52 46
16 11 12 13 12 18 40 64 76 75 71 64 71 76 84 86 92 100 100 100 100 100 100 100 99 89 88 80 77 71 81 64 63 58 59 50 49 42 45 47 48 47 48 50 54 60 57 53 45
16 14 14 12 13 15 41 56 48 75 54 64 74 79 86 86 89 99 100 100 99 100 100 99 99 94 89 85 76 69 79 73 61 54 63 52 40 48 45 52 50 53 54 53 56 58 56 55 48
19 20 16 14 17 24 38 43 54 61 65 67 71 75 86 88 83 90 97 100 95 100 100 98 93 88 75 69 71 74 63 61 61 62 53 63 61 62 57 62 61 56 59 58 62 57 57 56 51
22 20 23 16 20 28 28 45 48 54 62 63 66 71 84 84 80 92 91 99 97 99 97 98 91 81 70 70 67 64 64 66 53 66 64 60 59 61 66 66 65 61 60 58 59 56 57 53 49
26 29 24 18 20 32 37 55 43 48 53 59 56 72 67 78 85 88 88 95 100 99 100 100 97 81 82 84 81 75 79 78 72 50 41 54 61 64 61 59 60 63 62 61 58 57 57 55 51
30 25 21 21 24 38 49 55 47 44 60 62 64 68 63 80 81 84 86 89 97 96 97 99 96 92 84 96 90 76 67 58 39 44 47 56 55 62 62 60 64 65 66 62 61 60 59 59 52
22 24 23 18 18 21 45 57 53 48 64 65 59 57 56 73 73 78 81 81 84 90 95 91 89 90 87 80 76 67 61 52 56 53 52 61 53 53 63 67 67 69 67 64 64 62 61 60 51
23 24 24 19 22 21 28 58 48 53 54 52 49 55 53 62 70 71 74 76 75 78 83 86 80 78 79 70 69 66 60 57 55 48 49 46 53 65 70 69 70 72 72 67 66 63 62 61 54
23 24 24 22 22 21 23 30 48 45 55 46 57 44 47 64 64 64 66 68 67 75 76 72 76 72 69 64 67 66 64 63 57 62 55 59 61 67 66 68 71 73 74 70 68 64 65 62 55
26 21 18 18 26 37 24 39 28 53 59 65 51 42 45 59 60 58 60 64 62 68 71 70 72 70 70 74 76 71 72 66 68 64 54 50 64 63 70 66 70 76 74 72 71 66 66 65 60
24 22 24 23 27 24 27 36 32 41 55 62 49 38 42 52 59 60 58 59 63 67 69 67 69 64 62 66 75 77 75 62 56 56 57 53 57 59 68 70 76 75 76 73 71 69 69 67 62
19 22 22 28 31 46 32 33 35 29 23 30 31 36 36 44 54 54 56 57 59 66 73 73 72 70 63 66 71 77 77 63 53 48 53 54 63 62 70 69 77 76 75 74 73 73 72 71 67
22 28 49 57 54 59 33 38 32 27 27 22 29 29 32 36 49 52 53 56 58 58 68 72 71 74 75 76 72 76 65 63 55 47 45 51 60 66 69 71 74 79 78 80 76 76 75 76 77
27 33 60 56 70 60 43 46 32 26 24 20 19 22 26 33 41 48 50 52 54 56 60 63 63 63 65 66 72 66 63 60 64 56 53 52 52 56 66 64 77 73 77 82 80 79 81 87 80
31 37 30 41 46 66 54 41 30 27 24 22 17 20 26 31 34 42 46 47 48 54 54 60 61 60 61 62 69 70 63 66 63 61 58 58 61 64 69 73 83 88 87 87 85 85 85 88 77
24 25 40 41 59 64 48 45 44 30 25 20 16 18 21 28 30 33 41 45 45 47 52 54 58 60 57 59 59 61 63 65 60 62 65 62 63 69 72 90 93 95 92 87 86 86 87 83 86
30 29 31 39 53 65 62 52 28 28 27 21 16 19 25 28 29 32 34 36 42 45 48 53 54 56 60 59 59 59 61 64 69 67 75 74 76 88 95 94 92 96 91 88 90 91 88 90 95
22 28 32 66 55 56 66 58 26 23 24 20 18 19 22 32 32 31 32 33 37 40 46 51 56 58 60 60 69 70 77 83 87 82 78 70 89 91 95 93 90 92 94 94 92 90 91 93 93

GFSSGP_925_rhum_060.txt.gz
RH
19 22 32 30 32 37 36 26 19 19 23 40 44 44 64 63 74 76 74 69 88 98 78 57 72 84 93 65 59 59 55 54 51 55 64 69 59 60 65 71 70 72 77 83 86 88 90 92 87
19 22 33 38 34 36 33 22 18 17 15 52 43 54 69 64 68 92 90 76 84 84 83 61 57 85 93 68 64 70 67 69 76 76 76 65 58 58 66 67 67 70 76 81 83 86 71 69 73
17 20 30 38 41 39 32 20 19 15 38 37 70 67 66 80 69 84 85 82 68 63 63 58 46 53 75 81 79 67 57 73 83 82 77 61 52 55 56 59 58 61 71 81 82 58 45 46 61
26 25 28 29 31 26 23 19 16 39 45 49 54 83 74 73 94 92 95 75 80 74 81 61 62 98 93 86 80 78 65 82 81 85 76 64 60 57 54 48 48 58 71 74 50 46 39 45 54
30 31 31 30 29 23 16 19 43 54 50 56 57 62 71 86 92 90 91 85 88 72 93 87 84 90 90 91 91 95 59 78 80 86 75 66 59 57 53 48 44 42 39 45 46 40 39 53 58
32 32 36 38 27 18 21 40 44 48 51 48 65 77 81 87 92 95 98 82 89 77 86 80 86 97 94 88 91 94 78 78 83 85 80 69 64 64 54 46 38 30 27 29 41 38 37 56 60
28 30 32 27 22 18 23 44 48 50 52 53 67 76 81 90 98 100 92 51 92 97 82 91 88 89 90 97 80 87 81 76 83 86 86 75 64 62 53 40 34 28 25 23 32 35 36 38 50
27 27 26 24 20 20 23 46 51 49 62 56 65 69 72 93 98 100 93 85 97 80 81 99 99 100 99 100 82 80 70 75 79 83 84 83 72 58 46 38 32 30 28 23 25 34 35 37 35
17 27 30 23 17 20 23 49 56 55 58 66 84 85 97 99 99 99 100 99 100 99 95 100 100 97 92 91 90 77 67 80 83 84 87 87 84 57 46 38 33 36 36 30 29 35 35 37 36
20 28 23 17 14 20 45 51 60 58 63 72 89 93 98 93 96 98 97 100 100 100 100 99 100 93 92 100 91 68 49 70 79 82 87 86 86 56 45 40 37 40 41 34 33 36 36 36 37
18 21 15 14 14 18 57 71 62 70 91 83 80 94 95 95 95 98 99 100 100 100 98 100 97 87 97 99 85 76 74 82 78 76 76 77 81 52 44 41 39 44 45 42 42 50 49 41 37
16 15 14 13 14 23 49 68 63 65 67 72 82 86 88 88 91 96 100 100 99 100 100 100 95 89 88 94 98 87 80 82 78 78 72 65 66 46 43 41 41 45 47 48 51 56 50 47 40
19 18 15 14 20 41 51 67 58 60 72 77 84 79 85 87 90 98 100 100 100 100 100 100 99 91 92 94 83 83 81 77 74 74 66 54 47 46 41 43 42 45 47 50 56 57 55 50 38
20 23 22 16 14 42 52 63 56 65 68 80 80 85 85 87 89 98 100 99 99 100 100 100 100 92 86 70 68 77 67 64 71 64 57 46 36 32 40 44 45 46 47 50 56 58 57 53 44
22 24 21 19 15 35 46 46 46 67 66 77 86 92 86 82 89 92 97 100 99 100 100 100 92 87 80 76 66 74 79 70 61 62 52 42 37 37 41 45 47 48 51 52 55 60 57 54 50
24 24 27 20 15 27 31 40 50 67 71 77 86 92 92 89 88 86 96 99 100 100 99 100 100 85 78 74 68 73 76 65 69 64 57 47 50 47 46 53 57 53 56 57 58 60 58 56 52
30 35 29 25 18 26 35 39 51 64 65 70 90 92 95 94 93 92 93 97 100 100 99 99 99 90 86 74 86 81 73 63 60 58 65 53 58 59 62 62 66 64 63 62 62 60 57 56 53
36 33 28 29 23 40 45 44 57 57 58 64 81 88 92 92 95 92 87 95 100 100 100 97 93 88 87 80 72 71 59 54 49 44 51 64 62 64 65 66 63 67 67 65 64 59 58 57 56
27 30 32 26 26 35 43 43 51 65 62 74 76 79 88 91 89 91 91 92 99 100 100 99 93 96 91 79 82 82 80 59 50 46 43 61 57 56 64 61 60 64 65 68 62 60 59 60 59
29 31 30 24 24 25 48 45 45 57 64 66 69 72 80 86 91 88 92 97 100 100 99 100 96 93 91 87 79 78 77 68 66 63 64 60 58 58 53 52 62 63 72 74 64 63 63 62 61
28 30 30 26 20 24 48 44 52 49 52 52 54 58 64 80 89 85 86 92 96 98 100 99 92 84 82 75 75 76 71 68 62 58 53 44 37 46 55 55 61 68 71 73 69 66 65 63 63
34 25 25 25 28 38 26 42 50 56 57 56 54 57 60 72 77 78 80 84 86 90 95 96 93 90 83 80 78 72 67 63 57 52 44 42 40 53 52 56 65 70 68 73 73 69 67 65 65
29 26 27 26 28 28 27 37 35 53 54 50 54 53 56 66 74 76 75 77 78 81 86 88 88 83 82 80 72 72 68 63 57 59 52 44 51 50 56 65 67 68 69 71 74 75 72 68 68
23 24 25 34 37 49 34 36 39 68 50 42 45 50 49 63 65 68 67 69 70 74 79 75 77 80 75 73 70 73 73 68 70 65 67 68 62 56 49 61 69 68 69 73 75 79 79 74 70
24 33 50 54 54 58 35 43 37 27 32 41 41 48 45 55 62 63 65 65 65 70 75 74 70 76 72 69 70 78 76 76 78 67 66 68 65 60 52 52 65 66 70 72 78 84 83 79 75
31 35 60 56 68 57 45 50 37 27 28 28 35 38 39 45 57 62 61 61 63 66 70 73 71 72 70 66 67 72 81 80 77 77 68 63 56 54 55 54 64 65 80 78 83 90 87 83 82
31 39 32 45 54 67 57 46 32 28 28 24 30 35 38 41 52 58 58 59 60 64 70 71 71 71 72 68 64 66 72 76 82 86 77 62 55 54 58 57 64 68 81 89 96 97 89 83 84
26 30 43 54 57 64 53 45 46 34 32 27 25 27 32 36 43 53 54 57 59 60 63 72 71 72 72 73 74 73 76 80 83 81 79 71 61 64 73 75 71 70 76 98 100 95 89 88 91
32 35 37 43 59 63 64 54 39 34 33 24 23 22 28 36 38 45 50 50 54 57 59 65 73 73 73 74 76 76 78 79 84 84 81 88 81 79 69 74 83 90 100 100 97 95 92 92 94
22 30 35 57 56 63 71 60 31 29 26 20 20 23 32 34 34 36 43 48 50 52 55 59 62 68 68 71 73 73 75 81 76 76 94 82 99 90 86 90 92 98 100 100 97 93 95 95 96

GFSSGP_925_rhum_063.txt.gz
RH
21 27 35 28 29 40 41 31 24 23 18 45 48 48 65 71 71 60 80 83 89 98 96 71 56 49 50 79 93 84 78 76 88 90 87 76 77 79 76 74 81 85 86 87 88 90 93 95 95
22 29 31 35 37 38 32 25 21 20 21 54 59 63 67 70 69 91 89 85 90 98 95 75 55 60 67 62 81 90 89 79 91 89 87 87 85 76 69 72 85 86 88 88 89 90 93 93 91
20 22 30 41 44 39 34 23 20 28 53 47 74 73 69 77 76 87 92 87 86 96 100 80 63 55 47 62 71 94 85 71 88 86 88 89 85 69 67 81 88 87 88 83 77 82 71 72 75
27 25 29 34 32 30 26 20 20 37 42 53 66 77 79 72 89 75 80 80 80 82 98 77 85 58 54 80 91 79 80 83 88 87 88 89 80 63 65 77 87 88 85 76 63 57 65 70 64
30 34 35 32 31 25 21 20 42 50 53 53 59 60 69 90 93 84 78 82 78 73 78 82 93 76 71 90 90 82 83 74 85 85 87 88 72 61 61 77 85 85 78 60 47 54 59 57 45
32 33 38 38 31 23 18 35 43 49 50 49 64 75 83 95 96 97 100 88 84 84 74 72 82 69 79 100 83 82 78 83 82 85 88 88 73 61 63 64 65 59 46 40 52 57 59 58 55
30 35 36 31 30 23 20 46 48 51 54 61 67 74 79 88 96 96 99 100 92 79 80 83 90 99 100 98 88 82 76 80 82 83 88 76 59 54 43 38 40 45 41 38 46 61 59 58 57
30 32 30 29 24 21 25 47 53 54 64 59 72 72 70 85 92 99 100 95 83 62 77 98 99 100 88 96 92 71 60 75 83 80 84 73 59 43 34 27 26 32 36 38 38 39 54 59 57
21 30 35 27 20 17 35 43 57 53 59 74 91 89 91 99 96 95 98 100 99 92 92 100 100 100 96 88 77 61 64 76 79 70 65 67 54 41 31 27 25 25 33 38 39 35 38 52 57
25 32 25 21 17 17 40 53 58 61 65 77 95 96 99 93 96 97 99 99 100 100 100 100 100 100 96 90 83 69 68 82 73 72 66 58 50 38 32 33 31 29 35 37 40 40 38 42 42
22 24 19 16 16 24 48 64 58 71 70 69 78 94 97 95 93 95 99 100 100 99 100 100 100 100 98 97 96 80 72 72 80 77 67 56 50 42 36 39 38 31 31 35 36 41 38 35 33
18 18 16 16 15 39 65 62 66 76 57 76 76 94 93 90 94 95 99 100 99 100 100 99 100 100 100 99 90 92 97 93 84 65 70 59 48 42 39 42 43 38 40 44 48 44 40 37 33
19 19 19 20 21 33 58 64 53 63 75 85 91 93 91 90 92 99 99 100 100 100 100 99 100 100 100 100 99 99 100 98 90 76 76 68 46 43 40 44 45 45 44 49 54 49 47 39 35
22 24 26 21 24 53 57 61 69 58 76 92 90 93 92 91 89 94 96 99 100 100 100 99 99 99 97 91 88 99 99 94 91 80 77 70 43 42 42 43 46 48 49 53 57 54 54 44 35
23 25 25 21 20 46 49 56 69 63 79 94 94 94 92 92 88 87 97 100 99 100 98 100 99 100 97 98 98 88 80 73 81 76 74 63 43 41 42 42 45 47 48 53 60 58 56 52 41
26 26 30 20 17 24 34 37 42 75 80 92 96 98 94 92 92 91 95 99 100 99 100 100 100 100 94 94 81 68 83 85 73 70 64 49 41 40 45 39 44 46 48 51 56 60 58 55 50
34 34 30 27 20 22 38 39 41 76 73 86 96 98 96 97 94 92 96 98 99 99 99 100 100 97 90 87 94 89 83 72 68 65 56 48 46 44 35 40 46 48 54 57 56 60 60 58 55
38 37 31 31 25 39 48 45 48 75 80 82 95 97 98 98 94 93 90 96 99 100 100 100 100 100 99 90 88 85 81 79 79 64 52 51 50 44 44 51 60 59 57 59 61 63 63 59 58
28 32 35 31 25 37 47 40 48 69 79 75 96 99 98 96 91 93 87 96 100 100 100 100 100 96 86 85 84 84 75 77 65 70 61 66 68 67 64 66 66 68 67 67 65 65 66 63 59
34 36 35 30 26 35 36 41 46 71 67 63 84 94 94 93 98 96 93 94 100 99 100 100 100 98 90 86 86 83 84 68 54 52 56 45 63 66 68 65 66 66 66 70 70 67 67 63 63
35 36 34 32 27 27 42 45 46 50 56 68 70 77 80 88 95 96 97 100 97 100 100 99 98 93 89 85 82 77 71 63 56 49 48 44 49 58 60 56 65 63 64 66 70 68 65 64 66
38 30 30 31 34 39 33 50 33 51 60 60 62 69 75 81 84 89 93 99 98 95 98 100 98 90 86 83 79 79 75 73 66 59 43 48 57 60 50 56 60 62 64 69 68 70 70 69 70
33 29 33 35 35 32 32 40 33 56 61 56 56 60 66 74 81 88 88 91 97 96 98 100 100 95 90 84 78 73 73 71 65 62 65 60 58 57 50 45 50 54 54 64 70 74 78 73 76
27 30 33 38 42 53 39 38 42 60 46 46 42 58 61 70 77 78 78 83 90 92 94 96 97 93 89 85 80 75 75 73 70 63 59 56 53 51 44 42 45 56 59 65 70 73 75 77 79
32 35 56 57 56 54 38 44 33 30 42 35 39 46 56 61 72 77 79 79 83 88 91 94 96 93 88 89 84 79 77 73 70 66 62 62 57 49 46 38 52 56 54 68 72 79 88 92 93
38 38 63 58 63 54 45 57 39 32 28 30 32 38 47 55 65 72 74 73 76 80 84 88 87 89 87 86 84 79 77 76 73 70 66 63 62 54 46 51 61 57 52 56 77 90 96 100 100
38 44 33 44 55 72 59 49 34 28 27 29 30 46 50 50 62 65 68 69 70 71 75 80 78 79 81 83 80 79 77 77 76 76 79 72 61 57 59 61 59 60 64 67 84 75 87 82 99
29 32 44 57 58 66 54 54 45 34 29 30 28 41 49 46 54 60 62 64 66 65 67 72 76 69 70 77 74 74 75 76 80 79 80 81 76 76 77 78 70 61 65 79 76 89 96 100 99
36 40 41 43 58 52 56 57 42 35 32 36 33 29 45 45 45 54 59 59 62 63 64 67 73 74 69 68 73 69 69 70 75 81 83 84 86 86 88 89 90 88 90 88 100 100 99 99 97
28 35 38 53 56 67 64 45 33 35 32 32 25 25 28 35 41 42 54 57 60 62 63 66 68 71 75 77 75 75 69 69 70 77 77 84 89 90 86 85 99 91 98 100 100 100 99 100 98

GFSSGP_925_rhum_066.txt.gz
RH
22 31 35 25 27 37 36 31 26 24 22 42 53 47 50 61 58 55 88 96 96 95 93 87 76 72 64 61 80 86 97 68 82 89 92 89 92 87 86 87 85 85 86 86 85 86 88 91 95
22 34 30 35 35 37 31 26 23 25 38 49 62 70 61 66 71 92 84 92 99 100 84 75 66 60 53 51 48 56 86 90 86 84 77 86 86 87 90 92 89 86 86 82 84 92 91 94 84
24 23 29 39 46 37 34 25 22 20 45 52 68 71 71 63 76 83 97 86 99 100 93 75 58 52 54 54 54 58 65 79 62 67 90 87 90 88 91 87 85 85 90 94 93 93 96 78 77
28 26 30 35 31 30 27 23 22 24 38 52 69 67 78 71 88 89 96 95 100 99 96 79 61 54 48 47 62 68 75 79 85 74 87 87 91 94 89 84 84 85 87 91 94 96 75 69 65
27 34 37 34 32 28 26 22 30 49 50 51 60 59 70 69 87 88 90 98 96 100 99 86 67 72 62 61 64 74 75 78 85 80 86 87 91 94 88 87 85 75 72 91 95 77 65 43 35
31 34 37 34 30 25 23 23 46 46 51 50 65 66 68 87 85 85 94 96 94 89 100 99 83 78 71 69 76 84 85 91 89 74 85 84 89 92 89 88 77 52 48 72 67 64 43 40 37
30 36 34 32 31 25 18 44 45 43 54 57 65 78 77 84 88 93 95 100 91 81 96 95 92 91 85 78 88 89 85 84 86 80 78 81 87 93 93 80 50 42 50 60 59 53 52 39 38
33 35 33 32 28 22 18 44 54 54 56 60 72 75 64 94 92 95 97 96 96 100 96 86 90 91 96 100 95 92 81 75 73 82 83 80 83 84 78 57 41 50 61 61 60 57 55 46 41
24 32 37 28 24 19 25 39 56 54 64 69 85 91 93 98 94 98 100 90 88 88 97 95 100 87 95 83 82 91 92 77 77 80 78 70 65 65 59 46 40 39 47 59 60 59 57 50 41
28 35 28 24 21 17 19 42 49 56 63 73 89 91 92 97 95 96 98 100 99 100 99 100 86 99 100 100 99 87 94 80 60 58 70 56 49 40 35 39 39 38 37 39 53 57 58 45 41
25 27 23 19 19 19 24 60 57 64 65 67 72 88 87 96 95 94 99 100 100 100 100 100 100 100 100 96 80 76 81 79 80 60 59 52 43 35 32 37 40 40 38 38 45 54 47 44 38
21 20 18 17 18 27 41 55 60 72 54 76 80 88 88 96 97 96 99 99 100 99 98 100 100 100 95 87 86 94 88 90 83 69 61 51 40 33 36 35 39 42 42 39 39 40 37 39 37
20 19 20 21 26 26 55 55 54 64 64 85 95 96 96 94 98 96 99 100 100 100 98 100 100 100 100 98 96 86 95 88 94 72 63 51 34 39 41 36 37 39 45 43 40 36 36 35 34
24 23 27 26 22 51 53 59 58 52 81 92 95 94 94 92 97 95 96 99 100 100 100 100 98 100 99 100 96 92 96 91 86 76 76 51 36 41 43 38 38 43 47 51 44 46 42 36 33
24 27 27 24 21 37 50 47 76 58 87 94 96 94 93 93 90 96 91 93 99 100 98 98 99 100 99 100 100 99 99 92 98 98 91 59 39 42 45 46 44 46 55 55 52 52 47 39 35
26 27 31 21 26 32 36 44 32 72 91 93 95 96 95 93 91 92 98 95 92 99 99 100 100 98 100 97 99 96 97 98 94 95 68 47 42 41 45 47 48 50 53 57 57 57 54 48 41
36 35 30 28 22 42 39 42 39 82 88 90 95 90 97 95 95 95 97 97 92 99 99 100 100 100 98 94 82 85 96 88 78 68 62 55 45 43 42 46 50 48 49 53 59 61 59 56 50
39 38 36 34 26 30 44 47 39 79 82 83 91 91 96 97 96 94 98 97 93 93 100 100 100 100 100 98 93 94 83 66 87 76 63 65 43 46 46 46 51 44 51 52 57 58 62 60 56
32 33 34 32 27 27 38 51 38 66 85 89 91 96 94 98 92 92 87 93 100 99 98 99 100 100 100 97 99 97 94 92 96 69 64 64 51 49 51 47 44 48 50 56 59 63 65 65 62
33 35 38 32 27 31 33 36 41 62 73 79 83 93 94 96 100 99 88 92 100 99 99 100 100 99 97 97 95 94 94 87 80 61 63 65 57 46 53 52 58 63 68 66 68 69 72 69 66
38 39 38 29 32 29 35 43 37 43 65 67 70 78 86 92 96 93 96 89 90 99 100 99 99 99 95 89 87 86 90 84 82 82 80 77 65 61 60 59 58 61 68 68 70 71 72 69 70
38 34 32 33 38 45 35 52 36 32 49 62 67 80 79 88 91 95 92 93 90 95 100 93 98 98 92 84 83 82 91 81 74 69 62 65 63 62 58 62 64 63 68 66 69 70 71 71 69
31 32 36 36 42 38 36 48 38 51 42 49 60 66 72 80 87 95 96 97 96 95 99 92 94 98 96 88 86 83 79 77 67 62 55 48 51 49 50 55 52 53 59 59 59 68 76 76 72
28 34 37 41 48 62 44 43 46 36 43 34 42 55 58 75 79 86 88 94 100 99 97 97 99 98 93 91 85 82 78 73 68 61 59 53 49 44 47 49 50 54 50 52 57 62 71 82 83
33 40 58 60 64 66 42 46 35 31 30 34 31 43 57 62 76 87 93 93 97 100 100 100 100 100 92 90 87 83 78 74 69 63 61 58 52 51 46 49 51 52 49 53 53 64 77 83 99
42 44 67 62 66 55 48 54 40 33 30 29 34 39 51 65 72 80 85 84 88 93 99 100 100 100 97 92 88 83 80 78 74 65 65 65 65 60 58 54 51 50 49 46 56 66 76 90 94
42 49 36 46 56 70 56 50 39 34 33 30 32 34 46 63 72 75 78 79 81 85 88 91 96 98 97 93 92 89 86 83 80 75 72 69 65 62 60 56 54 54 53 58 68 80 82 91 95
34 35 47 60 59 67 56 56 46 28 27 26 31 34 47 57 66 69 73 75 75 77 80 83 84 86 88 91 90 91 88 84 79 79 78 73 71 68 66 61 59 56 62 72 82 90 89 87 89
38 40 41 46 61 61 60 50 45 35 32 31 34 35 38 58 58 65 66 68 71 72 74 79 82 83 80 82 85 85 86 83 80 80 79 78 76 72 69 67 69 67 80 93 96 94 93 96 100
29 38 43 61 54 72 63 45 30 36 34 35 34 30 30 51 53 58 62 65 68 70 70 72 76 80 79 79 81 81 76 74 72 70 66 61 67 66 68 58 73 92 95 98 100 100 100 100 100

GFSSGP_925_rhum_072.txt.gz
RH
26 33 30 19 15 13 13 13 13 14 16 17 25 26 22 24 26 28 62 80 87 78 80 92 88 96 95 98 86 72 68 92 84 73 64 76 82 82 84 81 83 82 90 96 95 96 97 98 85
30 32 23 14 15 12 12 13 13 13 14 19 29 34 33 30 36 41 58 83 93 77 78 86 87 83 93 97 87 82 88 80 81 66 75 83 84 86 86 85 86 86 88 94 93 92 96 97 78
26 23 15 14 13 12 12 13 13 14 14 19 26 34 32 34 43 55 81 86 96 85 79 77 79 75 79 93 94 96 90 89 84 73 86 84 90 90 86 86 85 84 89 91 87 88 99 87 77
19 15 14 15 13 13 13 12 12 13 20 23 26 26 38 45 49 68 81 85 88 94 85 82 76 77 52 91 94 94 90 92 87 86 85 89 88 89 83 83 79 78 81 85 89 98 98 74 70
19 14 12 13 13 13 13 12 13 14 22 24 29 20 31 49 66 73 78 83 88 97 88 52 82 78 70 73 91 93 96 90 88 91 87 85 86 86 82 76 77 79 82 88 94 100 86 70 68
15 14 13 10 12 13 13 12 13 17 20 26 29 29 29 57 61 73 84 88 96 99 97 92 92 74 78 78 95 89 93 90 90 88 84 86 85 82 78 80 83 80 82 89 92 78 75 72 71
13 12 10 10 12 14 13 15 19 17 17 18 25 30 33 49 68 73 81 96 100 99 96 98 92 92 74 75 69 66 93 91 89 88 77 91 79 78 79 89 90 92 81 69 64 70 62 54 62
13 13 13 11 12 13 12 15 18 20 17 33 28 26 29 52 65 74 84 99 99 99 98 96 93 89 83 82 70 68 74 86 91 85 86 77 81 80 84 82 80 86 70 47 38 42 47 51 57
14 14 13 11 12 12 11 14 16 24 24 36 37 39 48 66 70 73 87 98 99 98 99 95 98 95 95 92 81 71 74 82 81 80 80 78 88 84 78 78 84 82 59 36 36 44 47 58 63
14 13 11 9 10 12 11 15 17 21 18 26 32 46 66 68 62 62 71 76 87 93 96 97 98 97 81 80 94 94 88 96 92 87 75 84 86 82 67 87 85 78 52 38 42 42 49 63 67
12 13 9 12 11 11 12 13 18 20 17 15 22 36 56 59 60 57 62 72 75 88 97 98 87 85 76 100 99 96 100 100 90 82 83 82 87 79 81 90 92 87 62 62 61 66 57 53 54
14 12 10 10 11 12 14 13 18 19 20 30 32 37 49 55 52 56 61 66 75 98 99 96 99 92 92 92 97 89 93 95 91 82 83 89 86 77 81 80 76 71 66 66 63 57 54 58 55
17 10 10 11 12 13 14 17 14 17 20 33 40 46 51 49 50 59 61 69 87 97 100 98 99 100 96 93 97 96 96 91 92 97 89 88 79 68 73 70 68 65 64 67 60 58 59 57 55
12 12 11 10 12 14 17 14 22 14 21 34 45 42 44 48 52 55 60 61 83 95 99 100 99 100 98 100 100 100 100 94 92 94 90 84 76 68 62 67 66 65 65 63 55 54 51 49 50
14 16 12 12 12 12 15 16 16 16 32 34 44 43 45 48 54 56 58 60 76 93 99 100 99 98 99 100 100 99 99 98 93 94 84 76 70 65 62 55 54 55 55 56 52 54 47 46 48
17 16 17 10 11 16 25 16 12 21 31 33 38 43 49 50 53 55 60 61 69 88 99 100 100 100 100 100 99 100 95 94 87 96 81 68 56 46 47 55 51 52 56 52 50 48 48 45 43
19 18 18 15 13 16 23 16 16 25 27 26 33 40 47 48 52 56 61 61 69 79 87 99 99 99 100 100 99 98 93 93 96 90 68 62 50 36 52 53 54 61 51 47 51 50 48 46 43
20 20 16 16 13 18 18 18 13 15 22 26 28 35 42 46 47 56 64 64 72 79 92 99 99 100 100 100 100 98 96 93 99 91 67 48 60 42 54 55 66 64 58 59 57 57 54 51 48
17 16 16 12 13 18 16 16 14 13 20 24 29 31 38 43 42 55 65 70 76 81 92 99 100 99 100 99 100 100 99 100 94 82 78 56 71 61 59 53 68 73 66 63 69 69 68 62 58
20 19 18 14 16 19 13 13 11 14 16 17 18 28 30 38 44 55 64 67 71 80 87 99 99 100 100 100 100 100 98 100 99 92 70 77 84 67 76 65 68 75 74 73 78 82 82 76 74
23 22 20 18 15 16 17 15 12 14 14 18 22 22 26 34 46 54 60 66 66 80 82 83 100 100 100 100 99 100 100 100 100 100 87 76 84 71 80 53 49 54 72 74 83 85 80 78 84
26 18 21 20 22 22 19 18 13 17 16 14 15 23 27 30 39 48 55 61 63 69 82 81 92 95 100 100 97 91 90 97 95 100 100 90 91 80 70 58 57 55 56 74 85 82 78 74 74
22 16 22 22 23 23 21 19 14 15 20 16 13 13 22 29 35 44 52 55 61 62 78 85 88 83 98 100 96 92 79 87 88 97 86 81 88 89 70 64 62 56 50 54 65 62 71 76 68
21 24 24 24 24 36 24 20 17 16 18 15 13 12 13 25 32 38 46 53 57 61 71 85 80 80 87 94 99 99 92 86 90 99 100 100 93 89 73 72 67 63 53 64 60 60 62 58 71
22 25 35 41 42 39 20 24 19 18 16 16 16 14 14 21 30 36 43 50 54 61 69 72 70 70 79 84 87 91 88 85 88 95 94 100 100 96 74 71 66 62 57 55 52 66 61 69 68
25 25 32 41 40 32 27 30 22 17 16 19 18 16 16 19 28 34 39 47 53 60 67 71 65 64 70 77 78 79 78 84 80 83 79 85 83 84 76 69 58 59 64 50 61 73 70 70 79
29 32 23 31 36 43 28 25 21 18 18 16 16 18 16 15 21 32 36 45 51 58 64 70 60 60 66 73 75 75 74 75 74 75 73 74 73 72 78 79 80 71 70 69 74 70 72 73 76
26 23 40 36 49 47 29 28 25 22 20 15 15 15 14 17 20 28 34 42 49 56 62 70 62 57 62 70 72 72 73 74 71 70 71 69 68 66 68 72 74 71 68 66 67 65 65 66 68
31 35 30 29 33 40 40 29 20 20 19 18 18 17 17 19 20 28 32 38 48 52 60 68 66 60 63 69 69 69 70 71 74 75 73 73 72 71 68 70 69 63 61 61 64 64 65 65 67
24 29 30 40 38 34 35 32 19 20 22 25 21 17 19 19 17 22 32 38 45 50 55 60 65 62 63 70 70 70 71 70 72 76 76 75 74 73 71 69 65 62 61 63 64 67 67 67 69

GFSSGP_925_rhum_075.txt.gz
RH
16 25 20 14 14 10 10 9 8 9 10 11 13 15 16 16 18 27 44 60 65 65 77 78 79 90 91 96 91 94 92 80 72 75 80 79 77 78 83 85 85 89 93 97 98 99 100 100 86
20 19 17 13 12 10 9 9 9 9 9 12 15 14 15 18 18 21 38 62 68 67 77 74 81 83 90 88 92 93 91 90 84 76 73 79 78 79 87 87 88 87 92 96 96 97 100 98 80
25 17 15 12 12 11 10 9 9 9 10 11 13 16 18 22 25 36 62 70 77 76 76 79 81 86 87 92 96 88 92 93 82 72 74 79 78 86 87 87 86 87 91 94 96 99 100 82 74
14 11 11 12 10 9 10 8 9 9 10 12 13 15 20 37 33 46 60 64 68 76 74 78 82 70 70 72 69 96 89 93 88 76 76 81 84 87 84 85 84 86 90 92 94 93 93 76 72
14 11 12 11 10 8 9 8 8 10 10 13 15 14 15 34 44 51 58 63 64 75 81 85 75 58 48 62 67 59 93 92 86 84 87 88 88 84 86 85 85 87 86 87 83 92 82 75 70
13 10 13 11 8 8 9 9 10 10 10 13 16 16 17 38 43 50 65 68 76 81 90 90 86 72 62 57 64 75 98 88 82 86 90 87 82 81 81 78 77 81 83 85 88 94 72 72 67
14 12 12 9 8 8 9 10 12 13 12 10 12 18 19 34 47 54 59 73 87 98 97 89 97 80 72 65 65 77 100 88 87 90 86 87 83 80 69 74 82 82 78 84 92 75 61 66 65
11 10 12 9 9 8 9 10 10 13 12 16 12 17 19 36 46 53 60 83 83 99 98 98 92 88 84 81 80 91 92 97 74 80 87 88 81 78 77 83 84 77 76 82 69 61 65 64 70
10 13 13 10 9 8 8 10 10 11 13 12 16 22 32 46 50 51 62 82 91 95 98 96 94 87 85 86 87 85 82 89 90 79 74 69 84 87 88 90 85 72 53 65 58 56 60 60 58
12 12 11 7 7 8 7 10 11 11 11 13 14 18 41 47 44 43 50 69 75 76 89 96 96 96 90 88 75 68 78 86 100 82 76 85 79 88 88 95 91 61 42 46 47 49 48 58 60
11 13 9 8 8 7 8 9 9 12 13 11 16 13 30 42 40 39 40 58 63 76 77 80 88 96 98 100 99 84 80 90 93 84 73 84 83 79 86 95 96 61 46 68 61 58 61 51 50
12 10 9 8 7 8 9 8 10 11 12 11 18 19 27 37 36 34 40 46 64 75 84 83 88 100 100 89 84 99 93 91 98 82 81 94 88 77 87 89 80 63 57 64 60 58 48 51 50
11 10 8 7 7 8 9 10 10 12 9 9 16 25 28 32 30 33 39 46 61 76 96 90 97 98 100 84 97 100 100 100 95 95 92 95 91 76 81 78 70 57 58 58 52 50 52 51 52
10 10 10 9 8 8 9 10 9 10 9 13 18 26 26 31 30 31 38 41 63 75 97 98 99 97 93 95 91 92 100 98 99 100 95 95 83 76 74 75 66 60 59 54 50 52 52 49 49
11 13 11 11 9 9 9 12 10 8 8 13 15 26 26 30 31 30 34 39 47 79 98 98 99 100 94 98 96 98 89 91 90 90 95 83 76 73 69 68 59 55 55 53 49 50 45 43 45
16 15 17 11 10 9 10 14 9 9 15 18 20 26 28 31 33 32 39 41 46 66 90 98 100 100 99 99 98 99 95 92 100 94 94 86 74 66 70 64 59 57 56 53 47 45 42 42 42
18 20 16 14 10 10 12 15 10 14 16 17 20 24 28 31 33 34 40 42 46 61 79 97 100 100 100 100 100 99 98 98 98 96 89 88 74 64 58 56 55 56 54 50 46 45 43 42 40
21 18 16 16 11 11 13 16 11 11 14 17 17 21 26 30 32 35 42 42 46 55 73 97 99 99 100 100 100 100 100 100 93 95 87 76 71 69 58 55 54 55 55 49 47 48 48 45 41
18 17 16 13 10 12 14 12 10 10 10 14 15 18 23 28 27 34 44 46 50 57 70 84 98 99 100 100 100 100 100 97 93 87 82 70 62 61 53 52 58 57 46 45 52 55 53 51 48
20 20 18 14 11 15 13 12 9 9 10 10 12 15 18 23 28 33 45 50 54 57 70 90 100 99 100 100 100 99 98 97 99 91 84 62 72 65 58 56 67 62 54 59 62 63 62 58 56
23 24 22 19 14 13 16 16 12 10 9 10 10 12 13 19 27 33 42 50 56 56 68 74 96 99 99 98 99 98 100 98 96 100 96 68 62 63 54 58 68 71 69 69 72 74 72 69 74
29 19 19 19 19 22 14 20 13 10 9 10 12 13 14 16 21 30 39 45 52 54 61 75 88 99 100 98 100 99 97 98 93 98 100 89 67 66 62 77 83 80 76 75 78 80 76 70 68
25 19 19 18 22 23 20 20 16 12 11 11 12 11 12 15 20 28 36 41 47 52 59 61 84 88 99 100 99 99 98 94 99 99 92 90 83 80 72 80 74 65 67 69 76 83 77 76 67
19 19 20 19 23 31 23 23 20 14 14 14 11 10 10 13 19 24 32 38 43 48 57 62 80 80 85 93 88 90 85 89 98 100 100 93 92 84 85 82 72 56 54 60 62 60 60 66 68
19 24 36 38 36 37 20 23 21 14 13 13 13 12 10 12 18 23 31 36 40 47 55 61 65 67 82 89 88 87 78 77 86 92 99 100 89 93 93 88 76 59 62 64 66 64 58 63 65
24 25 33 46 45 33 20 25 18 13 12 12 12 12 11 14 18 21 26 34 39 46 52 59 57 57 64 84 86 87 83 80 75 78 77 84 92 93 96 89 85 66 63 72 73 67 66 66 66
33 30 20 29 35 42 30 22 17 16 15 14 14 14 13 13 14 20 23 30 37 44 50 56 50 50 54 67 76 80 81 79 81 78 82 81 76 78 85 86 80 70 66 76 76 74 68 63 66
27 26 33 30 52 52 33 25 29 20 18 15 14 14 13 12 14 16 22 27 34 41 48 55 52 46 48 57 64 67 70 74 77 77 79 80 81 81 84 87 82 81 75 75 73 71 68 68 65
29 31 32 29 31 45 48 34 18 18 17 17 17 16 15 16 16 18 22 25 32 38 45 54 57 47 47 51 58 61 64 65 69 76 75 77 77 79 77 82 77 72 70 70 70 67 68 70 72
24 25 31 43 43 35 36 35 17 18 21 20 21 19 15 16 14 15 20 23 29 36 42 49 54 51 46 51 58 62 63 63 66 69 72 74 72 72 73 72 75 73 69 69 70 69 68 70 66

GFSSGP_925_rhum_078.txt.gz
RH
15 13 23 18 19 14 13 9 8 8 8 10 11 13 14 13 16 31 50 57 57 69 82 71 66 80 95 90 86 87 91 90 83 72 73 73 77 73 74 80 84 89 89 96 96 95 97 98 80
20 17 17 16 22 16 10 8 9 8 9 10 10 12 12 16 23 21 45 60 64 60 73 86 66 75 85 97 95 90 86 88 90 76 77 73 74 71 80 86 89 89 91 98 99 97 100 87 77
19 20 17 18 17 16 11 8 8 8 9 10 10 9 14 21 28 32 55 62 68 68 76 84 75 71 87 96 84 98 96 87 89 82 80 74 71 76 85 86 88 89 92 99 98 100 89 74 69
19 13 13 16 13 9 9 8 8 8 8 10 12 14 19 23 24 38 47 54 60 68 76 82 83 67 71 78 70 54 60 91 83 83 81 78 77 83 84 83 88 90 91 98 98 99 75 73 68
14 12 16 16 12 9 7 8 8 8 8 9 12 15 16 34 36 43 50 55 57 63 74 81 83 79 68 76 75 68 57 85 97 83 82 82 82 85 84 85 89 88 92 97 100 87 73 70 65
14 13 17 14 10 7 8 8 8 8 8 9 11 14 19 35 36 52 60 62 70 68 76 86 91 85 70 61 63 57 59 59 98 82 82 85 88 83 84 85 91 91 88 93 86 78 73 68 53
16 15 15 13 11 9 7 8 10 10 11 11 12 16 17 35 42 48 54 68 80 86 82 89 88 79 70 75 76 75 75 85 96 79 87 86 85 85 85 89 89 86 83 79 72 77 71 50 55
12 13 15 12 11 10 7 10 10 10 12 11 10 13 19 42 43 50 57 75 72 85 90 94 95 92 86 74 77 74 75 77 95 74 87 86 86 85 87 85 81 80 82 82 61 60 58 50 56
10 15 15 12 10 8 7 10 8 8 11 10 10 13 20 40 43 46 57 76 78 84 95 95 91 91 87 86 78 81 74 66 98 80 74 80 86 82 82 86 76 74 81 74 66 60 54 54 51
12 15 13 8 8 8 7 7 9 10 10 11 11 12 34 38 38 40 49 59 71 76 82 80 87 91 89 92 88 86 80 96 78 98 81 83 80 74 80 91 80 71 70 54 62 54 54 43 50
12 14 11 9 8 7 8 7 7 9 11 10 12 16 34 36 35 35 34 54 60 67 79 88 83 90 93 91 89 82 89 90 89 97 89 84 80 78 91 94 85 79 50 52 50 50 50 45 53
12 9 10 9 8 8 8 8 8 8 11 10 11 14 18 20 32 32 31 42 59 75 77 75 89 96 98 95 90 88 75 92 93 100 89 79 81 92 95 96 64 58 42 50 43 46 58 47 54
11 9 8 8 8 8 7 8 9 11 8 8 8 13 21 22 26 28 30 39 67 69 82 82 87 89 91 84 76 94 98 99 92 90 91 82 82 89 79 90 56 52 47 50 39 57 53 51 49
10 9 9 8 8 8 9 8 8 9 8 8 9 16 21 22 26 26 33 35 60 70 85 87 92 92 96 98 97 100 99 99 100 97 94 79 83 86 63 82 56 62 55 43 53 58 52 53 54
12 14 11 10 9 10 9 10 10 9 8 8 9 12 20 21 26 27 30 34 56 73 90 93 98 94 99 97 99 99 100 99 100 90 91 87 89 76 78 76 60 62 56 47 54 52 52 50 54
15 15 19 12 10 10 10 15 10 8 8 8 10 13 21 23 26 28 28 35 49 70 86 91 96 99 97 97 90 94 99 98 98 100 98 96 86 77 74 71 63 64 55 51 56 51 48 48 50
21 25 21 16 11 11 11 13 9 9 11 13 14 16 22 25 28 28 31 37 39 61 80 90 97 97 98 100 99 89 90 94 97 96 93 89 84 73 64 68 66 62 56 55 51 48 45 45 46
26 23 20 19 13 11 12 12 11 11 13 15 14 17 22 26 28 30 32 38 39 58 82 83 99 98 100 100 100 100 90 98 94 92 72 68 82 54 56 75 76 64 60 53 49 47 44 44 44
21 22 22 16 12 13 14 12 11 10 11 14 16 16 19 26 25 30 34 39 41 57 76 89 100 100 99 100 100 100 100 100 100 99 98 82 80 72 70 62 59 59 56 49 48 46 43 44 42
18 21 23 19 14 13 13 13 11 10 10 10 11 15 16 21 25 31 38 42 45 56 73 92 99 99 99 99 100 100 100 100 100 99 87 82 73 71 62 58 54 54 54 49 49 53 52 50 46
21 26 26 23 17 15 14 16 15 12 10 9 9 10 12 18 25 32 41 47 50 58 66 78 90 99 100 100 100 100 100 100 100 100 87 78 70 72 62 59 59 54 52 50 51 55 58 59 52
41 25 24 22 24 31 17 24 16 13 12 11 10 12 12 13 21 29 39 47 54 54 66 73 86 90 97 98 100 100 98 98 97 95 93 80 69 67 62 61 67 60 57 60 58 62 66 65 64
52 32 34 36 26 27 22 24 19 13 14 12 11 12 14 15 17 26 36 42 50 53 65 66 82 89 97 99 100 99 99 95 92 98 98 93 75 68 61 58 67 62 71 65 69 72 72 72 70
39 36 41 36 29 37 26 26 24 18 15 11 10 12 12 15 17 22 32 38 44 52 59 69 77 87 92 94 93 93 93 96 93 100 100 100 87 63 67 73 66 72 76 78 77 74 72 69 67
40 38 77 66 47 46 23 26 23 16 13 12 13 12 12 15 18 22 31 38 42 51 59 64 80 79 91 96 99 99 95 92 98 95 96 94 99 94 70 82 79 68 69 71 74 74 74 69 63
41 38 82 70 58 42 24 29 21 15 13 12 12 12 13 15 22 23 28 37 40 48 58 61 70 74 86 96 96 96 95 95 94 98 95 87 83 86 76 82 82 80 68 59 63 62 66 67 63
58 53 44 66 61 86 43 21 16 13 13 12 13 14 15 16 18 20 23 36 38 46 56 61 58 65 69 81 87 89 87 87 93 95 94 94 84 76 78 74 80 86 76 61 56 60 66 74 67
47 34 50 60 74 84 47 39 25 20 19 15 15 16 16 15 16 20 22 34 36 43 51 59 56 56 58 81 82 80 79 84 82 84 88 91 93 87 73 72 85 91 86 74 63 64 61 72 76
44 46 58 59 59 68 58 44 25 28 19 22 22 21 21 20 19 20 21 27 34 39 47 57 58 51 52 63 78 79 81 82 80 79 81 83 82 89 86 81 84 88 90 82 74 72 75 80 79
34 38 40 73 80 53 62 52 27 25 23 23 23 19 20 20 20 19 21 24 31 37 44 53 57 54 48 52 63 72 76 79 80 82 82 83 83 83 82 83 91 91 85 85 80 79 73 76 75

GFSSGP_925_rhum_081.txt.gz
RH
12 11 14 27 38 32 29 21 12 10 17 15 14 15 15 16 34 62 58 58 73 76 73 65 78 87 80 80 81 84 88 76 71 64 60 63 61 58 58 60 67 78 85 94 94 96 100 92 77
13 15 22 31 36 41 32 15 12 14 14 12 12 14 15 28 37 61 63 63 65 75 75 72 71 91 91 81 82 80 79 79 75 69 66 67 61 57 63 73 84 86 88 92 93 90 100 77 76
14 21 31 34 38 36 29 12 12 12 12 11 12 11 17 42 37 57 58 64 63 77 80 84 69 78 93 94 92 93 84 91 87 78 69 69 65 66 71 80 86 88 90 94 95 97 82 71 71
19 27 24 26 29 22 18 13 10 10 11 12 13 15 34 30 35 51 55 62 66 69 77 80 77 70 72 75 94 88 94 80 81 99 78 71 70 83 84 83 87 90 93 97 98 83 70 63 69
19 26 29 30 26 18 14 10 9 9 9 14 15 17 38 41 45 49 54 57 62 68 73 83 84 76 85 89 79 77 76 55 54 74 99 83 82 85 85 87 91 94 94 95 95 71 63 70 70
25 24 31 33 23 15 11 10 10 10 10 10 12 15 45 43 47 53 55 62 62 78 82 83 87 85 80 87 85 76 62 58 53 58 86 90 83 85 85 88 91 95 91 96 75 68 66 69 70
29 30 31 27 21 16 11 11 13 12 12 13 13 16 50 52 54 56 65 69 70 75 88 92 82 90 81 75 72 63 62 69 89 92 78 94 86 84 78 88 95 91 89 93 75 69 64 64 59
24 26 26 23 21 18 11 12 12 13 14 12 11 16 63 53 49 54 63 71 74 74 75 92 91 86 84 80 73 63 67 58 68 80 76 97 87 86 88 92 92 88 79 79 75 70 59 58 56
17 27 26 24 19 15 10 11 11 11 12 11 11 14 36 47 50 61 73 71 74 75 76 86 94 97 86 80 79 73 72 67 94 83 84 86 91 93 95 93 87 81 72 74 74 67 49 57 51
22 26 22 17 14 14 11 10 11 13 14 15 14 45 47 46 47 59 75 84 80 80 77 80 88 93 93 95 84 88 82 76 88 76 99 84 89 98 95 90 83 83 66 61 60 52 54 53 49
21 23 17 15 13 13 13 10 9 11 14 13 17 50 51 48 46 47 56 67 67 74 76 79 85 88 90 93 84 93 78 76 79 84 99 85 97 96 88 92 89 87 78 56 56 51 55 50 49
23 16 15 13 12 12 12 10 11 10 12 12 12 35 48 49 48 46 48 63 69 72 79 84 92 89 91 92 91 86 86 81 84 92 95 94 94 91 93 86 79 74 68 57 50 42 40 50 49
20 16 13 11 11 11 10 12 11 14 12 10 10 18 25 29 42 34 36 57 68 76 81 82 83 90 92 91 89 88 82 92 83 100 92 90 79 84 77 78 64 60 52 44 39 38 45 50 56
18 17 15 12 12 10 12 12 11 12 12 10 9 12 29 28 31 34 54 68 73 79 84 91 82 83 86 80 78 95 93 99 98 100 98 91 78 84 83 77 57 53 40 33 46 43 46 50 54
18 20 17 17 15 14 12 16 14 12 11 12 12 14 28 29 31 39 39 67 69 76 84 95 89 89 89 84 94 94 100 100 100 100 97 80 82 98 90 66 55 42 34 47 59 55 50 49 57
25 24 26 18 16 14 14 19 14 12 11 12 12 13 26 28 34 33 35 54 68 80 85 98 97 96 90 81 98 99 98 98 100 100 100 92 92 98 84 57 60 42 29 53 58 60 57 54 54
30 39 32 24 17 16 16 17 13 12 12 14 15 16 30 32 38 33 37 51 68 77 87 91 98 100 96 81 83 100 100 100 100 100 98 85 88 87 83 62 67 49 40 52 60 53 52 52 55
40 36 32 29 21 18 18 17 15 13 16 17 19 21 33 35 40 35 37 48 65 74 82 87 88 97 100 96 89 100 100 100 94 98 91 92 86 82 75 64 65 58 51 48 56 52 48 51 54
29 31 31 25 20 21 21 20 15 13 16 19 22 22 33 34 36 36 40 42 70 77 84 88 93 94 99 100 100 100 100 100 100 99 96 94 80 78 75 67 65 68 59 59 51 48 48 48 51
24 28 28 22 19 19 22 23 17 16 16 16 23 23 28 33 39 40 48 50 72 80 85 87 95 91 97 100 100 100 100 100 100 94 92 80 78 78 73 69 66 69 64 58 50 49 48 45 47
31 32 30 32 20 21 27 30 23 15 15 14 15 19 21 33 39 44 51 56 77 86 88 89 99 98 99 100 100 100 100 100 100 99 92 75 76 59 49 58 55 74 69 52 49 46 45 45 43
41 31 41 53 73 76 50 57 32 19 17 15 13 14 16 28 36 44 52 56 71 85 81 83 96 99 100 98 100 100 98 97 99 99 84 78 73 60 70 65 64 62 72 54 47 46 46 49 53
44 48 55 73 89 73 63 54 34 22 21 17 15 14 16 21 37 47 53 54 61 70 83 83 88 99 94 100 99 100 100 99 98 100 91 88 83 76 70 63 62 57 55 50 49 52 54 54 52
59 74 64 75 90 100 76 57 39 26 20 18 16 14 15 19 34 44 50 58 59 72 71 82 85 85 87 100 100 100 99 99 99 100 97 86 77 77 74 66 62 57 55 58 51 54 56 57 55
75 94 100 99 99 92 45 49 35 23 18 18 19 18 16 20 35 44 54 60 62 75 75 86 86 86 98 96 99 100 100 97 95 98 96 90 87 81 70 64 65 68 62 65 61 60 61 67 66
70 89 96 88 92 75 34 41 29 20 16 15 16 16 16 24 33 44 50 54 60 69 76 75 89 94 89 92 100 98 99 97 93 96 95 93 92 86 73 66 71 72 61 66 66 65 67 68 68
55 73 66 85 97 98 77 38 20 18 17 17 16 15 23 32 32 43 46 50 57 65 73 77 82 85 94 89 92 89 96 96 94 92 93 95 90 88 83 71 75 77 73 68 69 69 73 72 66
41 46 80 98 96 96 56 62 52 24 22 21 21 22 23 24 27 33 44 47 52 63 66 70 82 80 87 97 95 98 99 98 96 96 95 93 92 88 88 83 74 79 80 76 71 69 70 76 72
54 60 93 95 83 99 97 82 63 76 35 31 30 27 28 29 27 26 35 44 48 61 66 67 71 77 75 94 95 90 90 92 95 95 96 96 94 87 81 83 88 87 90 80 80 70 67 73 73
44 64 71 100 94 75 93 91 74 79 54 31 25 25 27 26 27 25 30 47 51 57 65 67 64 65 68 76 86 86 85 81 85 94 94 93 96 91 83 83 82 85 88 87 86 84 78 74 76

GFSSGP_925_rhum_087.txt.gz
RH
27 22 18 29 38 43 41 30 20 17 17 16 15 17 18 20 24 22 57 53 63 61 68 78 83 83 62 70 80 80 71 67 71 85 87 84 80 79 76 77 84 88 95 98 93 90 95 100 90
24 20 25 40 47 44 34 29 22 19 16 15 16 23 28 43 64 76 70 64 60 62 67 76 85 96 83 73 76 91 81 71 70 74 82 76 72 70 72 73 87 89 94 95 89 86 95 97 94
20 27 36 43 54 48 33 24 18 18 14 15 14 19 30 43 67 71 57 60 68 72 72 75 86 92 90 84 84 91 89 78 79 76 76 75 75 74 72 80 88 90 88 85 89 89 96 94 89
21 32 37 41 45 41 30 24 21 15 13 14 14 33 38 49 65 61 58 58 72 80 77 79 87 89 89 87 90 89 90 93 94 95 89 84 81 81 85 87 87 86 82 81 81 93 94 90 92
23 36 42 39 38 30 25 23 19 18 14 14 16 30 49 58 58 59 59 59 67 83 81 81 84 90 89 88 84 90 81 87 84 71 73 70 67 70 80 78 82 83 85 86 85 94 92 92 89
29 34 41 42 32 25 21 18 17 17 16 16 20 50 52 60 63 66 64 68 71 76 86 85 85 87 97 95 94 86 76 84 76 66 61 68 65 49 66 82 78 83 84 88 92 92 88 88 85
30 36 37 34 32 27 21 16 16 16 14 17 21 55 58 69 64 68 74 76 78 82 88 89 90 92 97 100 98 99 96 94 83 78 72 74 61 66 59 76 80 86 89 88 93 89 86 81 80
34 37 37 38 32 27 17 14 13 15 15 14 39 65 67 63 67 71 74 76 82 87 90 92 92 90 88 89 88 100 99 92 84 80 76 68 70 69 65 75 76 79 87 92 95 87 84 74 77
28 40 44 39 30 26 18 18 15 14 15 14 19 52 41 52 70 82 89 89 91 94 95 96 84 79 87 89 81 81 83 77 74 71 66 78 79 73 73 77 79 79 81 93 90 89 83 68 74
35 46 39 28 23 23 20 20 19 15 16 15 25 62 67 73 83 88 91 94 88 88 92 95 93 81 80 91 92 87 82 77 80 80 78 88 79 85 72 70 87 78 82 83 90 86 66 66 79
39 37 27 25 23 21 20 22 17 15 18 17 17 59 80 82 82 84 87 83 79 75 83 88 94 88 88 93 94 90 79 82 84 80 87 100 83 88 91 85 98 81 83 87 88 71 61 70 75
36 32 27 26 23 23 23 19 18 17 16 15 16 54 73 79 79 81 85 80 79 78 77 81 91 81 84 91 92 87 83 79 85 84 87 92 94 85 90 93 96 88 87 82 81 68 60 64 71
37 32 28 26 24 23 21 21 20 19 16 15 16 64 68 66 68 68 70 74 75 80 82 82 89 85 88 92 96 93 88 85 86 97 94 90 94 97 99 100 99 84 86 80 77 65 67 69 71
27 30 29 27 25 22 22 20 18 17 16 16 16 63 65 62 63 63 65 80 82 80 84 84 93 87 85 86 84 96 95 90 82 87 94 91 98 100 100 100 98 83 80 78 72 62 63 65 65
28 33 29 27 22 23 18 25 21 18 16 17 16 33 62 60 58 59 63 74 79 80 82 86 89 91 88 75 78 97 100 94 84 88 96 100 99 100 100 99 89 79 81 76 67 63 62 65 69
33 32 39 26 24 21 22 28 20 17 17 17 16 17 20 47 57 51 57 64 82 83 86 88 91 89 89 81 94 99 100 100 99 97 98 95 100 99 100 98 89 74 78 74 69 62 62 63 70
43 54 40 32 24 23 23 27 22 21 19 19 18 18 17 24 43 48 59 71 82 80 89 92 90 84 83 78 83 100 100 100 98 99 99 96 100 100 100 92 86 69 60 65 62 58 59 65 70
53 48 40 36 28 27 32 31 33 26 22 23 22 20 18 21 34 39 73 81 88 88 96 95 91 86 84 85 96 99 100 99 100 99 100 99 100 100 96 88 81 64 58 62 62 53 58 62 65
38 42 44 37 26 40 43 48 37 33 28 32 30 25 21 24 29 45 82 91 99 100 99 100 96 92 89 100 99 98 100 99 100 100 100 100 100 100 88 85 64 56 56 55 49 54 55 70 69
39 44 42 28 26 41 52 44 34 32 29 31 31 30 26 33 54 69 92 100 100 99 98 99 100 99 90 99 98 94 95 100 99 100 100 100 100 98 93 87 67 65 52 55 60 57 56 67 66
28 30 30 32 50 48 57 41 28 24 30 31 34 27 23 39 54 71 93 98 98 97 98 99 100 100 88 94 100 100 98 96 100 100 100 100 100 99 90 91 75 59 47 67 68 58 57 60 65
40 36 39 49 64 70 62 64 40 35 37 38 36 35 28 34 47 60 82 97 97 97 100 100 100 99 100 94 99 97 99 99 99 99 100 99 100 100 97 90 73 59 47 63 64 60 59 57 65
49 56 65 69 81 87 78 90 41 43 46 39 38 34 31 29 45 54 78 85 96 97 100 99 100 100 100 100 99 99 100 98 91 100 100 100 100 100 100 95 87 72 51 56 61 62 60 56 59
68 66 63 78 87 97 61 76 52 38 33 35 34 31 24 25 42 47 58 78 96 98 100 98 94 97 100 100 100 99 100 98 98 100 100 100 100 99 96 90 87 81 72 48 54 57 60 56 54
75 68 89 96 95 81 55 69 55 36 35 38 33 29 24 23 35 48 62 85 95 96 98 97 96 92 95 94 99 100 98 96 94 96 99 100 100 100 93 91 87 81 64 58 63 62 60 60 57
78 68 84 94 92 94 56 73 62 48 48 38 33 30 26 24 27 49 56 79 93 96 97 96 99 93 94 94 96 100 96 100 100 100 98 97 97 98 90 82 80 80 75 70 71 72 59 64 68
90 93 68 92 87 96 80 64 46 65 66 56 48 41 46 33 26 45 53 72 89 96 97 98 98 97 96 97 98 99 99 98 95 94 96 88 86 87 88 81 73 75 73 70 70 68 62 80 70
65 69 93 100 98 98 75 70 83 84 87 72 50 53 53 51 43 50 56 70 81 89 97 100 100 99 98 97 100 99 100 94 89 89 94 93 89 82 82 82 74 73 75 74 72 72 78 86 85
73 94 92 92 99 99 96 81 95 93 90 86 70 50 58 61 63 64 65 69 71 82 92 96 99 100 100 100 100 100 100 98 94 95 93 91 90 89 79 75 75 73 78 77 76 76 82 85 82
49 72 83 96 94 100 99 90 91 86 80 77 72 54 61 66 64 72 76 77 83 84 90 95 94 94 98 99 100 99 99 88 89 95 94 88 89 92 89 84 79 77 77 79 80 82 86 86 87

GFSSGP_925_rhum_093.txt.gz
RH
19 28 19 27 25 28 24 19 22 17 17 16 16 16 17 15 26 19 47 54 41 38 51 58 73 99 92 76 67 64 65 76 83 78 69 68 73 79 78 76 83 85 87 90 95 89 91 93 91
29 21 27 30 25 20 13 23 22 17 15 15 16 23 22 18 42 45 50 57 43 40 52 64 84 97 94 81 74 69 71 94 90 80 73 74 76 77 76 79 82 82 83 86 96 95 99 96 88
23 24 25 28 32 15 10 18 18 16 16 16 15 19 20 25 54 49 52 53 56 53 56 67 94 97 96 84 78 72 69 85 88 71 71 66 66 67 68 72 80 80 80 84 93 98 98 92 85
27 26 28 28 23 28 16 18 20 19 14 14 13 14 32 44 53 57 52 54 57 53 57 69 96 98 93 88 80 77 67 78 91 75 71 70 69 69 69 70 70 72 81 87 89 94 94 89 85
26 29 24 30 27 27 26 23 21 17 16 14 16 15 31 48 53 58 54 54 50 53 62 71 97 98 89 89 85 77 73 69 81 90 77 73 74 73 72 72 76 76 77 88 92 89 92 85 86
22 27 28 17 15 25 22 18 17 16 15 16 16 19 28 58 65 62 58 57 54 58 70 77 91 99 86 90 87 85 72 66 65 86 79 77 80 78 79 79 78 77 74 78 95 86 93 87 89
21 28 21 26 21 22 19 16 16 17 18 15 20 19 35 57 69 65 65 63 66 71 74 92 99 97 90 95 93 90 84 71 74 78 80 77 78 76 73 74 60 69 74 71 85 89 94 96 93
20 23 27 25 16 17 17 18 14 15 16 17 30 26 25 47 76 77 75 76 78 78 80 91 98 94 96 95 96 92 91 81 73 79 75 76 77 65 66 65 74 67 78 79 92 83 89 95 91
27 22 22 18 21 14 18 17 17 16 15 15 16 30 45 71 87 90 95 96 92 89 87 94 98 94 89 92 94 94 92 86 82 79 76 70 67 67 67 71 73 72 75 83 91 78 84 93 90
26 27 21 20 17 16 18 20 18 16 17 15 15 43 69 77 80 80 93 96 100 99 98 99 100 95 87 89 92 99 98 89 76 74 71 70 73 77 76 86 76 65 72 78 83 77 88 95 95
31 28 24 20 18 19 20 20 18 17 16 16 17 16 53 71 75 73 73 83 95 100 100 100 100 90 84 86 87 99 96 94 81 71 76 88 98 98 94 98 73 74 76 84 94 81 99 98 94
34 34 22 18 21 22 23 22 22 20 19 17 17 16 25 51 60 68 69 74 89 100 99 96 99 90 83 86 86 83 99 96 91 82 80 88 86 100 99 94 81 81 81 97 96 100 99 95 90
40 30 29 23 21 22 22 24 22 22 18 16 18 18 18 29 41 58 65 72 80 88 96 89 96 98 90 96 94 90 99 94 94 91 86 89 90 99 100 98 96 88 83 100 100 91 96 95 84
31 31 25 24 26 28 28 26 26 23 21 19 19 16 15 26 37 52 71 70 77 80 84 80 91 91 100 100 100 94 92 93 92 90 89 96 98 99 100 99 96 87 82 95 92 91 93 90 89
24 27 23 27 26 29 26 29 27 23 20 20 18 16 16 17 38 54 61 67 72 77 83 82 80 94 99 97 100 96 84 80 88 86 84 90 99 99 100 99 100 84 92 92 95 96 92 89 88
35 34 37 28 21 23 25 30 23 20 21 19 18 19 19 17 27 40 57 65 70 74 83 80 84 89 99 98 99 99 98 77 84 90 90 88 92 100 100 100 98 98 96 98 94 90 88 88 86
44 40 44 37 27 24 27 24 21 22 25 25 23 22 21 20 18 20 42 55 63 72 80 89 94 92 96 100 98 99 99 87 77 91 88 93 98 97 100 100 100 98 98 99 89 84 82 85 84
40 48 44 37 28 27 27 29 24 22 28 27 24 23 23 23 21 19 20 33 56 71 80 88 99 100 100 100 100 99 99 98 93 99 98 98 100 96 100 100 100 100 100 97 87 80 85 81 82
35 39 39 35 29 33 33 31 27 27 28 28 25 23 23 23 20 21 24 27 58 75 84 92 99 99 99 99 100 100 99 99 100 99 99 100 100 100 100 100 100 100 99 91 83 82 86 89 85
33 35 36 36 32 32 32 32 27 27 25 23 24 23 23 23 23 24 30 50 67 76 85 95 99 100 100 99 99 99 99 98 100 100 100 100 100 99 97 98 100 100 98 90 80 80 84 87 91
33 34 38 33 32 34 43 30 23 20 23 23 24 24 23 24 24 25 43 65 74 78 87 96 99 100 99 99 99 99 100 96 98 99 98 100 100 99 100 97 94 95 91 86 79 76 79 85 89
34 28 28 30 37 38 52 42 30 23 23 24 25 32 33 26 25 26 38 65 75 77 87 97 100 100 100 99 100 95 94 95 98 100 99 98 100 98 99 94 94 88 87 87 81 74 73 79 84
26 30 30 50 52 63 56 58 29 24 23 45 53 53 47 39 30 29 34 51 69 80 89 97 100 100 100 99 97 94 92 87 95 100 94 100 100 100 100 99 96 88 80 84 80 74 73 74 78
53 58 67 70 67 64 46 48 38 33 34 48 61 59 59 50 48 33 31 55 71 80 86 96 100 100 100 100 98 95 92 93 97 100 100 100 100 100 100 99 98 89 78 70 69 71 68 66 77
51 52 67 62 71 43 51 58 46 50 68 66 66 62 61 57 60 54 33 60 73 80 88 92 95 99 100 100 99 96 94 99 92 95 99 100 100 100 100 100 100 98 87 70 60 70 72 67 68
56 48 54 50 64 64 55 42 46 67 57 54 57 57 56 59 62 65 47 51 71 80 88 91 96 95 99 100 99 98 97 96 90 95 90 97 100 99 99 100 100 100 97 85 74 80 80 68 66
67 62 55 66 76 70 50 44 45 58 56 61 59 55 58 63 64 70 60 55 70 78 89 91 92 93 95 96 96 98 99 97 94 97 80 84 93 99 100 100 100 99 91 82 82 83 83 52 68
52 59 68 79 83 81 57 64 62 63 69 64 64 62 72 72 75 76 56 50 72 78 84 93 96 93 96 96 97 97 98 97 97 96 95 87 88 100 100 100 100 100 96 83 77 79 69 59 60
63 68 76 68 73 72 78 57 76 73 74 74 76 78 81 82 84 80 64 60 77 81 88 96 95 93 96 95 97 98 91 92 94 98 91 89 94 100 100 100 100 99 100 99 95 88 71 70 65
58 70 65 60 85 76 84 62 70 72 73 72 73 80 79 83 87 87 86 80 81 86 85 91 89 89 90 90 89 90 92 92 97 100 99 99 99 99 100 100 100 100 100 99 98 96 90 91 80

GFSSGP_925_rhum_096.txt.gz
RH
27 33 18 20 16 12 8 7 10 12 12 11 11 10 12 11 15 15 33 41 48 50 67 61 74 95 81 74 67 63 64 70 71 69 68 68 79 81 82 83 82 81 84 91 87 87 92 90 87
26 23 17 15 12 9 6 7 10 9 11 12 13 12 12 12 16 23 36 48 42 49 62 76 80 98 91 77 70 64 65 68 71 72 72 74 82 84 82 83 82 83 85 86 91 94 92 90 89
26 17 12 11 10 8 6 6 7 11 11 12 12 12 12 14 24 22 32 54 51 55 64 74 79 96 92 81 72 66 65 79 73 81 76 71 78 76 77 82 82 83 86 84 90 94 91 90 87
19 14 13 13 9 9 8 6 11 12 10 11 11 12 15 22 26 30 42 53 50 62 66 80 78 95 93 91 75 67 74 98 93 75 73 71 71 70 68 68 77 82 84 84 89 89 92 90 86
18 11 11 12 8 6 10 10 12 13 10 9 10 11 14 28 36 40 46 54 52 68 72 89 68 96 90 86 80 72 67 74 89 79 76 71 70 70 68 69 71 74 86 86 85 93 93 91 87
14 12 11 9 8 8 10 8 10 10 9 8 11 11 11 27 36 47 54 55 59 78 86 90 77 94 86 85 82 78 68 65 60 72 76 73 73 71 70 73 78 75 87 98 90 87 93 88 89
15 12 10 7 7 7 9 8 9 8 7 10 10 13 12 28 37 50 57 60 70 83 94 95 97 95 86 86 86 82 74 70 64 68 73 77 76 73 72 71 67 71 78 78 83 85 88 85 89
12 11 12 8 10 9 8 10 8 8 10 12 12 15 15 28 50 57 59 69 74 86 91 98 97 98 89 98 91 92 82 72 68 66 68 70 75 75 72 70 67 65 72 73 77 86 73 78 88
14 16 13 10 10 9 9 10 9 9 12 12 12 14 27 41 58 60 60 67 72 83 89 99 99 96 87 96 95 91 90 83 77 74 74 68 82 83 76 82 73 69 75 74 71 85 80 74 90
19 19 15 10 9 10 8 10 10 12 11 12 11 20 33 41 49 50 52 58 76 86 97 100 99 92 90 96 98 97 98 96 97 94 96 88 80 81 75 79 74 75 75 71 80 93 76 70 97
19 19 14 12 11 10 10 10 8 10 8 10 11 12 12 28 30 36 38 46 58 71 91 100 99 97 89 99 99 98 99 99 100 98 92 85 84 83 85 79 83 92 83 83 87 94 73 83 90
22 16 16 13 13 13 13 10 11 11 10 8 11 10 12 13 20 24 26 32 46 61 80 100 99 100 92 90 98 99 99 100 98 91 97 94 90 91 86 83 85 87 87 90 94 80 88 86 86
24 22 16 16 14 13 13 14 13 13 10 9 9 10 12 11 12 16 22 27 36 52 78 96 99 99 88 85 92 100 100 96 100 92 97 98 95 92 96 86 84 94 96 94 94 80 94 91 83
20 21 19 16 16 15 18 16 16 16 14 12 12 12 11 10 11 13 18 25 34 45 63 85 99 100 97 92 96 100 100 99 99 97 92 87 92 99 97 88 91 100 100 94 94 94 91 87 77
19 23 20 19 19 20 18 21 18 14 13 14 12 10 11 10 11 13 16 25 33 41 54 74 99 100 98 100 100 98 100 99 100 93 86 91 98 99 98 96 94 99 87 85 98 92 88 79 72
23 23 27 20 18 17 19 25 15 14 16 16 14 13 12 12 10 12 17 24 29 35 48 64 79 100 99 100 99 99 99 99 100 98 96 98 98 99 98 94 100 100 91 93 87 92 86 73 70
28 30 30 26 20 18 19 21 15 13 15 16 14 14 14 14 13 13 16 23 29 33 44 61 75 99 100 100 99 98 100 99 100 98 100 100 100 96 99 100 100 100 92 84 85 91 84 75 70
31 31 28 30 21 22 21 21 17 17 17 18 17 16 15 15 13 12 12 16 22 30 43 58 73 92 99 99 100 99 100 100 99 100 100 99 99 98 99 100 100 100 100 100 99 94 84 76 67
24 26 28 23 21 25 24 22 19 17 18 19 19 17 16 15 13 13 13 15 20 26 41 54 69 93 100 100 100 100 100 99 100 96 98 99 99 100 100 100 100 100 100 98 96 88 82 77 70
39 43 28 22 24 27 24 23 19 18 19 19 18 17 16 16 15 14 14 15 23 28 41 53 63 96 99 96 92 92 97 98 95 100 95 98 99 99 97 100 100 100 100 100 97 86 81 78 73
36 31 27 26 22 22 24 26 22 17 16 15 16 16 17 18 19 16 16 17 22 36 42 52 61 96 98 81 85 93 88 90 94 98 96 98 100 99 100 100 100 100 100 100 94 85 80 78 76
31 21 22 25 28 32 27 29 20 18 16 15 20 31 34 35 32 26 20 18 19 35 44 51 67 96 98 90 83 79 78 80 86 90 89 99 100 100 100 98 100 99 100 94 90 86 76 72 74
23 17 23 22 22 25 28 37 19 15 18 23 28 39 40 38 36 36 30 22 20 31 48 57 80 95 98 95 78 79 69 62 81 84 94 100 100 100 100 100 99 100 99 94 86 82 77 74 70
19 22 27 32 35 52 30 28 19 19 28 39 41 40 40 39 39 38 36 30 24 31 52 67 92 95 98 95 82 78 70 67 77 84 93 100 100 100 98 100 97 97 98 93 88 85 83 82 76
30 38 56 58 59 42 28 32 20 32 45 45 45 42 40 41 43 43 41 38 27 40 57 76 94 93 95 93 88 84 74 72 75 83 92 99 100 100 100 100 99 98 94 91 87 83 81 79 80
39 34 39 40 36 30 35 38 28 39 34 38 36 37 40 43 45 48 52 50 38 41 56 79 90 90 93 94 91 90 74 88 74 80 92 100 100 100 99 100 100 94 97 93 91 91 88 88 88
46 48 36 44 54 48 28 28 30 39 33 36 37 40 47 48 47 57 66 53 44 41 56 79 82 75 89 91 93 94 85 93 78 76 78 86 99 100 99 100 100 99 96 96 86 84 86 87 83
38 33 50 48 65 54 35 36 38 39 46 42 42 47 54 52 57 69 73 55 39 42 56 81 83 80 93 91 94 96 95 93 80 81 86 86 95 99 100 100 100 100 100 99 96 80 78 79 84
48 47 46 41 50 49 46 42 51 52 48 47 48 59 57 59 65 76 78 75 46 50 67 86 88 88 95 95 93 93 96 94 87 82 87 92 97 99 99 100 100 100 100 100 99 95 90 86 76
28 33 37 44 64 56 59 46 50 39 38 49 62 62 57 61 67 78 80 87 73 67 84 88 88 95 94 94 90 95 93 94 94 89 89 90 97 97 96 100 100 99 100 99 95 89 84 83 62

GFSSGP_925_rhum_102.txt.gz
RH
21 24 28 18 17 15 12 8 6 5 6 5 6 7 8 9 18 28 20 29 43 42 22 27 33 40 47 60 69 77 81 76 74 70 65 63 66 69 73 78 80 83 87 95 92 89 86 72 73
23 23 19 12 16 16 11 7 6 4 5 9 9 8 8 9 14 20 24 25 43 57 34 30 29 39 51 60 69 74 81 81 76 73 69 64 64 68 73 81 84 86 88 92 89 91 90 79 81
25 21 16 13 13 15 13 6 4 4 8 8 8 7 8 9 11 17 24 28 35 52 58 33 29 37 52 63 70 72 75 79 79 74 73 70 68 72 73 77 82 82 82 84 84 92 86 86 85
24 22 14 14 13 9 8 7 5 4 6 6 7 8 8 14 14 21 24 28 33 43 54 53 32 32 45 65 68 71 74 74 79 78 76 72 70 70 70 74 78 80 88 86 83 80 80 88 86
18 14 17 13 10 8 7 6 4 5 5 6 6 8 10 14 14 25 26 28 37 44 54 49 33 38 52 71 67 69 74 78 79 77 76 74 72 72 73 80 78 84 82 79 81 86 84 76 80
20 14 17 15 11 8 6 5 5 6 6 6 7 8 10 13 15 27 29 31 39 51 64 49 46 50 56 73 69 67 71 73 76 79 77 80 76 75 70 73 76 84 85 64 70 76 69 79 72
21 18 18 15 12 10 7 6 6 6 7 7 6 8 9 17 18 26 33 34 44 56 71 67 60 70 74 76 76 69 72 74 76 77 82 79 78 75 73 79 83 77 75 69 83 73 62 64 77
18 18 20 16 14 12 7 6 5 6 7 6 5 8 11 17 20 27 37 45 55 67 73 81 82 77 74 78 83 76 73 73 72 74 81 79 77 75 77 78 78 75 78 78 72 62 66 64 74
16 24 24 19 17 13 8 7 5 5 6 6 5 7 17 23 28 32 38 52 66 76 78 78 81 82 84 85 81 82 76 72 70 72 80 80 78 78 76 77 77 76 74 79 69 63 59 56 68
19 26 25 16 13 12 9 8 6 6 7 6 5 6 20 21 29 35 41 51 60 73 78 81 80 78 77 80 82 84 85 76 69 70 74 82 78 82 78 79 78 74 76 73 66 69 73 75 73
21 24 20 16 13 11 10 9 6 7 8 7 9 10 18 19 24 33 34 43 54 61 72 82 82 79 76 76 85 88 89 88 85 83 80 83 79 85 85 83 82 78 81 74 76 81 82 78 74
22 19 17 16 13 13 12 10 10 7 9 8 8 7 14 18 19 23 29 32 42 50 65 77 81 81 73 78 79 80 80 81 81 86 83 86 79 83 87 86 83 77 82 84 80 86 85 81 78
16 18 16 15 14 14 13 13 12 12 9 7 7 7 8 13 11 12 17 21 27 42 54 66 78 80 77 69 70 71 71 80 82 84 85 84 84 87 87 88 83 83 85 87 91 89 86 85 83
14 14 16 15 14 14 15 14 13 12 10 10 9 8 8 8 10 9 11 14 17 30 50 64 76 80 80 76 72 74 77 79 89 90 94 90 81 84 87 83 83 88 83 85 90 95 93 81 79
16 17 15 16 15 15 14 17 16 13 11 11 11 10 10 8 7 9 9 11 12 16 49 62 73 80 87 80 75 80 81 86 89 90 98 93 86 88 87 85 83 86 84 95 97 94 95 74 83
19 20 23 17 16 16 17 25 17 12 12 13 12 12 12 10 8 7 9 9 11 13 27 66 76 83 90 85 72 85 82 82 81 77 86 89 92 88 90 90 86 81 90 93 93 94 99 83 85
22 28 26 22 16 18 19 23 18 14 13 13 13 13 13 13 10 8 8 9 10 10 17 63 75 82 91 89 74 75 80 79 75 74 78 88 92 94 94 92 88 82 88 92 97 98 88 84 86
28 27 24 23 18 18 20 21 17 14 14 14 13 14 13 13 12 10 8 8 9 10 12 54 74 78 87 91 85 79 76 83 76 72 77 77 86 89 94 98 94 84 91 93 98 96 91 85 85
22 22 24 20 32 30 27 20 16 14 14 15 14 14 14 14 12 10 10 9 10 10 14 46 68 85 90 95 91 84 86 85 85 84 76 80 83 86 91 97 93 92 100 97 93 99 98 99 87
19 26 27 39 35 36 38 44 30 16 16 14 14 15 15 15 14 14 14 12 11 12 14 20 56 76 87 93 90 88 88 88 90 86 84 82 82 85 90 96 99 96 100 100 99 99 98 97 88
17 23 42 43 44 70 62 61 38 22 15 14 14 14 14 16 16 16 18 20 20 20 20 17 29 62 79 89 90 91 87 86 90 89 85 82 77 77 92 96 99 99 100 100 99 99 93 90 96
21 17 34 40 79 85 33 62 30 22 20 17 15 17 17 16 22 23 25 26 24 23 21 21 20 34 67 87 89 84 83 84 88 82 83 82 81 91 97 100 100 99 100 100 100 95 93 89 95
17 18 31 31 55 66 50 75 40 21 19 18 16 20 28 28 30 31 31 30 28 28 27 24 24 24 61 88 86 80 71 76 78 80 77 78 95 100 100 98 100 100 100 100 99 100 95 91 92
15 40 42 43 48 92 59 53 32 24 22 19 22 27 30 32 33 33 33 35 36 40 46 38 30 30 64 86 77 70 69 68 71 72 74 98 100 99 100 100 95 99 100 100 100 99 95 91 89
26 44 56 71 88 66 28 29 30 23 18 26 30 28 34 38 40 39 40 44 49 52 52 52 37 35 75 83 78 69 68 65 62 65 72 99 100 96 100 100 98 100 100 100 100 100 100 96 91
30 36 58 50 50 40 23 63 50 30 28 28 31 41 38 37 42 45 48 54 62 62 66 62 68 40 79 84 76 70 69 67 61 65 75 98 93 99 100 98 99 100 99 98 100 100 100 95 91
28 37 34 99 67 89 51 71 45 48 32 35 38 43 44 43 48 49 54 64 72 71 76 80 81 55 83 87 80 74 70 64 59 69 76 92 97 100 100 98 100 99 100 100 99 100 96 92 86
32 30 72 93 96 96 46 52 64 60 41 42 50 51 54 51 51 53 60 71 76 79 84 88 57 75 84 84 79 82 73 66 60 70 84 95 96 99 99 99 100 100 98 99 95 91 92 89 92
42 69 70 67 56 77 69 98 78 67 61 57 59 60 59 57 57 60 66 75 81 85 89 96 78 77 86 87 82 86 79 66 64 75 83 88 96 100 98 97 100 100 100 99 100 99 99 100 99
39 52 50 86 42 66 94 100 68 62 54 63 66 65 65 66 67 67 70 78 84 88 91 96 99 89 90 95 91 88 86 71 67 83 86 85 99 93 96 100 99 100 100 100 100 100 99 96 100

GFSSGP_925_rhum_105.txt.gz
RH
8 17 24 31 31 32 30 19 12 10 8 9 10 11 10 18 30 50 56 30 16 21 29 33 27 31 44 59 65 70 71 72 72 69 63 60 61 66 70 73 75 76 77 84 82 82 77 74 73
10 20 28 34 28 32 28 17 14 9 10 11 11 10 10 25 26 43 56 31 15 20 29 29 28 28 41 50 60 67 73 76 77 75 66 64 65 66 69 76 80 85 83 82 82 94 72 70 75
21 24 32 35 29 28 26 15 12 9 10 9 9 9 9 20 28 30 42 35 19 26 29 27 27 28 34 48 57 63 72 79 81 77 70 68 70 69 72 77 78 77 81 80 77 81 72 76 80
22 33 35 28 28 20 15 12 9 9 9 8 7 9 15 17 26 33 40 39 39 46 30 24 23 27 37 50 57 64 70 78 82 79 74 71 73 70 72 77 81 80 78 79 85 82 78 75 78
27 31 35 30 24 15 11 9 8 9 7 9 8 8 20 20 24 32 40 41 43 55 55 32 26 29 38 53 61 68 69 71 79 79 75 74 75 72 73 80 80 77 62 56 79 76 78 78 80
31 29 32 33 24 16 11 9 8 8 7 8 8 9 17 27 27 29 36 41 43 53 56 40 35 33 37 56 63 69 68 72 78 82 81 78 78 75 76 81 81 76 62 49 80 60 58 60 71
37 35 30 27 21 17 13 10 10 9 9 8 8 9 12 26 28 29 36 40 44 51 56 47 48 44 44 59 67 67 68 69 76 78 81 84 80 77 76 81 76 73 62 64 66 58 60 60 63
32 36 39 30 24 21 13 11 9 8 10 7 8 10 14 24 32 34 41 48 54 59 60 48 56 54 54 67 68 67 67 66 70 74 80 84 82 80 77 78 76 76 73 66 64 66 66 61 69
22 39 42 36 29 22 15 15 11 7 7 7 6 8 28 30 35 50 61 63 68 72 72 65 61 61 59 66 70 68 67 65 65 69 78 83 83 81 77 78 79 78 74 66 73 72 65 59 64
32 37 37 26 22 21 16 15 13 9 8 8 7 28 26 31 40 60 71 81 75 76 82 81 76 72 79 76 73 70 71 66 65 65 76 82 84 81 79 79 80 79 78 74 71 67 64 60 59
22 37 26 24 22 20 21 18 14 13 11 10 10 30 30 30 42 48 64 74 77 73 77 83 85 80 86 85 77 74 76 74 69 67 69 81 84 85 84 84 84 83 85 88 73 67 64 64 61
17 16 24 25 20 19 21 18 17 16 12 10 10 18 28 28 35 44 47 64 73 78 78 79 78 80 84 80 77 78 83 84 80 76 73 82 77 87 84 84 84 80 85 79 73 74 75 74 73
22 15 13 16 19 19 18 20 18 18 15 11 10 10 24 24 27 29 30 46 60 72 75 78 74 80 80 79 78 78 82 83 81 85 85 80 78 86 87 83 77 78 78 78 74 78 80 79 74
23 20 16 14 16 19 20 19 18 16 16 13 12 11 13 24 21 19 23 24 51 63 70 73 74 71 74 85 77 78 84 82 78 80 87 84 82 84 88 88 85 80 76 76 79 79 82 82 78
17 22 19 20 16 16 17 22 20 16 16 16 14 13 13 14 16 15 11 13 17 51 64 70 73 67 75 73 77 75 75 80 80 85 90 87 82 86 88 88 86 84 83 84 90 91 87 86 84
22 24 27 19 20 16 18 28 19 16 16 16 17 16 14 14 13 10 10 8 8 19 66 67 70 70 77 72 78 74 73 75 80 86 87 97 91 87 85 87 86 84 84 84 89 96 100 97 91
25 37 28 24 20 20 20 24 20 17 18 17 16 15 16 14 14 12 10 8 7 10 57 66 75 74 72 80 78 79 76 76 89 86 85 86 95 91 87 84 83 79 83 81 78 100 97 99 86
31 38 32 28 23 21 22 22 18 20 19 18 18 16 15 15 14 14 12 9 8 8 48 67 76 83 76 79 86 85 83 80 87 87 79 80 82 89 95 94 88 85 82 84 99 99 97 92 92
24 31 34 25 20 40 46 38 33 24 22 19 19 17 16 15 14 13 12 9 8 10 63 74 83 89 84 86 90 88 87 80 78 83 81 83 80 84 89 93 96 92 88 86 87 100 96 100 94
25 28 31 24 23 64 81 74 59 54 44 35 22 18 22 18 19 15 16 13 12 12 49 81 84 87 84 85 92 83 80 90 79 82 88 84 80 81 86 90 95 97 98 91 94 98 100 99 97
37 24 22 22 59 72 76 72 59 45 34 29 23 15 18 20 18 25 31 32 28 26 36 80 80 78 83 76 86 85 82 82 81 84 82 86 86 85 82 87 95 97 99 100 100 100 99 93 100
32 18 16 18 73 94 81 87 60 45 37 29 23 18 18 32 38 40 44 46 47 52 50 46 80 93 95 90 90 83 87 87 88 87 86 82 84 82 86 89 91 97 100 100 99 100 100 98 98
48 20 19 19 91 80 96 98 73 54 50 26 22 38 41 42 44 48 50 50 56 58 60 59 59 64 80 86 86 88 89 86 84 86 88 84 87 86 84 92 96 96 100 100 100 100 100 98 96
41 54 64 74 67 92 65 75 61 52 45 27 47 50 48 48 52 54 55 60 64 63 65 66 64 68 72 81 86 84 84 88 88 90 85 82 88 92 95 98 99 98 100 100 100 100 100 99 97
43 51 94 96 98 88 48 72 50 36 36 47 52 49 52 55 58 61 64 67 69 71 73 72 76 72 72 95 90 84 81 81 85 82 85 95 98 98 99 98 98 100 99 100 100 100 100 99 99
56 57 85 79 86 65 39 59 45 42 58 55 51 60 57 59 60 64 65 69 74 74 76 81 86 86 79 88 91 86 81 78 80 79 85 94 100 96 98 98 100 95 98 100 100 100 100 100 100
45 59 50 81 94 88 56 70 47 60 81 62 71 64 66 63 64 68 69 72 76 78 83 86 90 97 85 64 92 80 77 75 72 75 74 86 98 99 85 98 100 100 100 100 100 100 100 100 99
32 39 67 96 91 93 80 81 84 88 94 80 74 75 76 75 75 74 74 75 78 82 91 91 95 100 59 83 84 78 79 75 72 69 73 84 88 89 92 100 100 98 100 99 100 100 100 100 100
48 90 81 79 87 97 96 99 92 92 90 85 81 80 80 80 78 77 77 78 81 87 93 96 98 100 99 90 84 78 84 84 73 68 78 85 89 93 95 100 100 100 100 99 100 100 100 100 100
58 65 79 89 99 100 98 99 95 87 77 77 77 75 74 73 75 76 78 84 85 89 94 97 98 100 100 100 87 86 86 84 74 77 85 86 89 97 100 100 99 100 98 98 100 99 98 95 98

GFSSGP_925_rhum_108.txt.gz
RH
12 14 26 30 28 38 36 27 17 14 13 8 11 10 14 22 29 39 57 42 22 26 44 57 43 44 46 50 56 61 64 64 64 63 62 63 64 69 77 80 82 77 75 76 76 74 74 78 78
12 27 31 39 35 36 31 25 21 16 13 13 13 10 17 34 37 68 54 39 23 19 34 47 46 40 42 45 54 63 67 69 69 66 65 65 66 69 74 80 82 79 75 76 73 73 71 74 79
17 27 35 44 42 35 28 20 17 13 10 10 10 9 16 33 49 56 36 26 26 22 29 38 43 39 41 42 53 63 70 72 72 70 67 68 71 70 76 78 81 79 79 80 77 71 67 69 78
20 35 42 42 38 27 22 13 11 12 10 9 9 10 18 25 46 39 27 29 17 23 31 33 36 37 38 41 53 65 72 74 74 72 70 70 72 72 77 83 80 74 72 71 70 66 70 71 80
27 42 46 45 38 25 18 14 14 13 10 9 9 9 23 28 33 34 30 23 18 30 31 31 34 33 36 42 56 67 71 75 76 75 73 72 74 72 80 81 77 72 67 64 64 64 64 67 77
33 37 45 46 28 21 17 14 12 11 10 10 10 12 25 33 54 59 37 24 22 26 31 33 36 33 43 47 56 62 66 73 77 78 77 78 75 77 76 80 75 73 64 59 59 49 50 62 73
41 45 43 34 30 24 19 14 14 13 13 12 8 13 27 44 48 52 50 45 48 43 39 35 39 45 66 54 57 63 65 70 76 79 81 81 79 79 78 80 78 65 58 52 60 47 56 62 76
40 44 51 32 31 29 18 15 13 14 13 11 9 13 42 37 47 55 60 61 65 63 48 41 47 57 68 67 61 64 67 70 74 74 78 83 81 81 79 82 81 74 68 61 59 52 58 60 76
26 47 46 43 42 36 24 23 17 13 11 10 7 13 24 41 61 72 82 79 71 67 56 43 52 61 65 68 67 68 70 73 71 74 78 86 83 84 80 80 80 73 68 65 59 54 63 63 73
38 46 40 33 33 32 26 23 20 19 18 11 14 33 43 58 64 73 81 92 90 77 62 49 52 60 69 71 68 68 68 73 71 75 78 84 84 84 80 78 78 74 77 68 56 58 64 63 73
24 41 31 30 29 27 26 26 22 24 24 15 13 38 50 59 61 68 72 79 80 69 73 67 55 60 68 74 70 70 68 70 71 73 78 83 85 83 79 80 84 83 80 70 70 72 69 68 72
20 16 21 23 27 28 28 22 23 22 22 16 17 27 43 52 63 65 73 76 79 76 67 70 67 68 78 78 74 70 70 69 70 70 80 84 87 85 83 82 84 84 78 76 76 70 69 69 65
26 19 14 13 14 17 22 26 25 24 19 18 16 20 37 46 54 58 62 66 70 77 72 70 71 70 82 86 79 74 74 73 69 70 77 82 86 86 85 85 85 83 80 79 78 68 68 68 71
22 23 26 24 21 16 16 18 20 20 19 18 17 16 32 35 41 48 60 67 81 75 67 67 73 71 76 89 82 77 79 77 79 75 75 82 80 83 85 85 85 81 80 76 76 71 69 73 78
17 22 18 17 18 23 18 21 20 18 19 19 17 17 18 26 30 33 38 63 67 68 58 72 72 74 75 88 82 78 78 82 83 84 84 82 78 81 83 84 83 76 77 75 79 77 76 80 83
23 22 25 18 19 18 23 31 19 15 19 19 20 19 18 18 25 22 24 29 56 63 73 71 79 76 70 79 84 79 79 82 84 82 87 88 83 81 85 85 84 79 80 78 79 80 87 90 88
25 31 26 22 20 22 23 28 20 16 17 20 18 20 19 18 18 17 16 15 18 41 62 70 82 82 71 74 84 80 82 84 82 80 85 91 90 87 86 88 86 85 84 83 80 90 98 100 100
39 30 26 31 26 24 25 28 21 19 23 22 19 20 21 20 16 15 11 10 10 12 48 57 68 79 80 84 89 88 82 83 82 85 89 88 94 91 90 88 86 85 86 88 95 100 100 98 100
45 32 33 26 21 28 29 24 52 53 27 20 24 25 21 20 17 14 11 12 12 11 28 67 83 91 92 92 95 90 86 81 79 80 85 85 90 97 93 89 88 87 89 90 96 100 100 100 99
35 52 58 29 21 24 56 70 58 55 51 44 36 39 33 23 19 16 17 24 24 24 45 63 77 91 89 90 92 93 94 90 84 87 91 86 81 89 98 95 92 90 93 93 100 99 100 100 100
28 29 55 56 27 24 53 57 52 39 42 40 38 35 32 29 44 49 56 63 63 66 72 86 94 98 91 87 98 92 98 94 93 91 90 92 87 83 86 92 96 98 98 97 100 100 99 98 100
56 33 60 65 44 41 66 72 67 50 49 39 35 36 50 54 57 60 65 68 70 70 65 71 95 99 99 94 100 93 94 94 88 87 87 92 92 89 88 86 89 92 97 100 99 99 100 99 96
49 32 57 49 36 45 62 99 76 57 57 48 42 59 60 62 64 67 66 65 71 73 71 67 65 88 97 97 99 93 88 88 85 84 85 81 86 87 88 86 86 90 95 93 97 96 100 100 96
39 58 54 64 52 56 40 94 66 56 48 64 67 67 66 68 68 66 65 68 73 76 80 78 75 64 64 92 97 94 90 87 86 89 87 77 81 82 90 89 88 89 87 93 98 96 100 100 97
52 68 89 86 94 76 56 90 55 72 70 69 75 74 72 70 73 74 75 75 75 76 83 84 88 88 74 66 88 99 91 87 83 89 91 96 97 97 92 90 89 86 87 94 99 100 100 100 100
70 60 70 94 91 78 57 79 75 88 85 80 73 75 76 78 79 80 77 77 79 81 86 90 91 92 94 79 67 96 95 94 89 87 91 94 94 90 88 90 86 88 93 96 99 100 100 100 100
56 67 50 68 87 81 70 76 86 80 89 95 91 85 85 83 80 80 78 80 81 85 89 93 94 95 97 100 66 69 97 94 89 85 87 86 89 90 93 90 92 95 96 99 100 100 100 100 99
59 58 64 87 78 87 77 81 100 99 96 95 97 88 84 82 80 79 78 81 84 88 91 96 95 97 99 100 87 70 98 94 87 88 87 88 89 90 98 93 97 92 99 99 100 100 100 100 100
61 76 77 67 80 96 96 99 99 100 97 100 100 96 85 84 83 82 79 82 85 90 92 95 98 99 99 100 100 99 99 98 90 85 88 90 89 87 94 98 89 99 98 98 99 99 100 100 100
70 72 66 82 85 96 98 98 100 98 96 94 98 88 83 83 85 85 84 87 88 90 94 96 98 99 100 100 100 100 94 95 96 88 93 94 89 87 87 91 93 99 98 99 100 99 100 100 100

GFSSGP_925_rhum_114.txt.gz
RH
19 14 27 25 27 38 30 20 20 14 15 11 13 13 13 20 40 46 62 57 31 38 54 55 55 58 60 59 59 58 56 53 51 53 65 70 72 71 68 69 71 74 74 78 79 78 75 72 73
15 28 28 40 29 32 22 26 22 18 13 16 13 13 17 23 41 63 71 48 34 39 51 54 57 62 62 61 62 61 58 56 52 54 60 71 73 73 73 72 75 74 76 78 78 76 74 70 73
25 29 32 43 46 26 17 14 21 15 14 15 12 11 14 28 46 60 48 47 42 39 48 53 57 61 62 63 65 64 62 60 56 55 58 67 73 74 75 77 75 74 75 74 71 72 72 72 73
27 34 42 44 49 36 16 15 16 17 13 12 11 12 11 26 48 43 45 47 39 38 46 50 56 58 58 63 68 67 65 64 60 57 61 69 74 76 78 75 73 74 73 69 68 68 71 76 78
29 44 30 54 50 37 29 22 17 17 16 14 13 14 12 21 43 39 43 45 39 46 50 53 54 53 53 61 66 69 68 68 64 62 66 71 77 80 78 73 70 72 71 72 70 67 72 78 82
24 44 51 40 30 30 23 21 21 20 16 16 13 13 14 26 43 50 49 44 34 36 49 56 52 46 48 57 65 71 72 71 68 66 70 74 77 79 76 72 71 72 74 72 67 67 75 82 86
26 46 43 38 35 29 24 20 22 21 20 19 13 15 15 41 49 50 65 53 47 46 54 57 55 55 55 54 63 70 73 74 71 69 72 75 76 78 76 75 70 71 72 68 68 73 80 83 85
47 51 53 37 33 32 22 20 17 18 20 15 14 18 17 34 31 64 64 67 60 64 61 60 60 57 65 70 67 70 75 77 74 72 75 75 76 77 76 75 72 72 72 69 72 74 80 83 86
38 54 57 44 36 33 26 27 24 20 21 22 17 19 20 48 58 70 80 75 76 77 67 55 52 59 62 77 72 71 78 80 78 77 78 79 77 78 77 76 73 72 70 68 73 74 79 84 88
36 59 34 35 33 35 31 30 30 29 28 28 26 23 55 82 91 81 86 87 89 82 71 60 52 61 68 75 79 78 81 86 85 82 84 82 80 78 77 77 74 72 67 69 74 72 69 83 87
31 35 29 28 31 37 39 37 32 32 34 27 28 26 33 65 83 86 80 75 70 78 73 67 60 67 75 74 80 82 79 82 87 85 86 85 84 83 82 81 78 71 70 76 73 70 69 69 84
45 25 20 20 23 24 25 28 28 29 27 26 27 25 24 46 73 82 84 78 75 68 70 69 67 68 72 74 80 82 79 79 82 87 87 88 89 89 87 86 83 82 82 74 74 75 70 70 80
29 33 34 25 18 18 17 18 26 25 20 16 15 20 22 26 51 61 69 74 79 88 82 62 63 68 70 70 78 83 80 78 78 83 86 87 89 90 89 88 86 86 83 76 76 73 73 72 79
23 23 22 23 24 20 20 20 20 19 21 18 18 20 21 22 25 35 61 68 72 83 86 69 62 67 70 70 63 65 74 77 78 79 80 87 88 87 90 95 89 87 81 78 79 69 78 75 75
27 33 28 25 22 20 19 21 18 18 16 19 18 19 17 18 24 28 41 67 65 77 82 77 67 72 67 65 60 60 63 73 78 79 78 83 87 89 89 96 100 96 82 82 81 79 83 78 76
32 37 45 27 22 22 21 29 18 15 15 18 18 18 18 18 21 20 30 53 69 75 81 82 71 67 64 61 61 63 64 66 76 78 78 81 86 88 88 92 100 100 99 86 83 82 85 81 75
42 50 48 41 27 27 26 30 21 17 16 17 17 17 20 20 17 18 22 42 62 75 73 87 80 74 66 67 69 69 65 66 72 78 76 80 86 89 88 87 96 100 100 90 87 89 89 86 87
43 53 50 54 36 36 45 46 34 27 21 21 22 22 20 24 19 17 18 28 62 72 74 78 86 86 86 92 99 98 87 78 70 73 78 76 85 89 91 88 85 89 95 94 93 96 100 95 92
39 43 49 38 30 32 33 41 38 35 31 26 23 22 25 30 23 50 50 38 39 62 78 85 94 95 100 100 100 99 100 97 85 76 79 81 80 87 92 91 88 89 94 95 98 100 98 100 99
61 68 64 46 33 46 46 46 34 36 37 35 34 22 32 35 60 66 75 81 81 74 45 85 97 98 100 100 100 99 99 100 99 96 85 86 85 84 90 90 89 90 99 100 100 100 100 100 99
50 58 47 50 49 52 52 50 41 33 28 30 29 29 62 63 76 72 73 83 86 88 84 70 82 93 98 100 100 99 100 98 100 99 92 85 90 92 92 90 91 92 97 100 100 100 100 100 100
68 44 47 56 68 91 50 85 55 36 35 37 80 85 84 82 79 78 79 82 89 90 88 95 100 100 100 100 100 97 96 95 97 99 100 100 97 92 93 92 95 90 92 99 100 99 99 100 99
56 48 57 57 72 75 68 88 70 41 43 94 93 88 87 86 86 86 83 82 89 92 91 88 90 99 100 100 98 96 98 95 93 97 100 100 98 99 97 97 100 97 87 93 90 98 100 100 99
49 61 64 65 80 96 59 72 61 96 99 94 91 92 90 86 85 82 82 85 88 93 92 89 87 87 91 99 100 100 96 96 96 100 100 100 100 99 100 100 100 99 99 99 100 100 100 100 100
59 65 89 87 94 86 54 69 89 98 93 96 98 95 90 88 87 83 84 82 85 89 92 93 92 92 91 89 93 100 100 98 95 97 99 100 100 100 100 100 100 100 98 99 100 100 100 99 100
60 61 85 94 94 89 66 82 99 100 97 96 94 95 90 91 90 89 84 84 87 90 93 94 93 94 96 97 96 92 92 99 100 96 95 98 100 100 100 100 100 100 96 88 93 100 100 100 95
56 77 69 97 86 96 98 98 95 88 95 98 100 97 96 94 93 91 87 87 89 90 94 96 96 96 98 99 99 100 94 86 96 100 95 95 94 91 96 97 100 100 99 94 95 100 100 99 97
58 61 93 97 96 92 88 96 97 95 98 98 97 98 100 97 94 90 89 87 91 92 94 97 98 97 98 100 100 100 100 100 85 94 97 95 96 95 92 92 96 100 100 98 99 100 100 100 100
86 86 88 89 90 96 96 97 100 99 99 98 98 100 100 100 98 95 88 94 90 92 95 97 98 98 99 100 100 100 100 100 100 85 99 97 91 94 96 94 97 100 100 100 100 100 100 100 100
81 85 81 97 89 97 97 98 100 100 100 100 98 98 100 100 100 98 96 95 96 92 93 96 98 98 100 100 100 100 100 100 100 99 100 100 86 93 96 100 100 100 100 100 100 100 98 92 95

GFSSGP_925_rhum_117.txt.gz
RH
22 16 29 23 13 19 14 10 17 11 15 12 12 11 10 12 35 24 52 50 47 44 53 53 55 56 57 59 57 55 54 54 55 58 65 66 63 64 63 67 71 75 76 73 75 76 74 70 69
19 29 28 25 11 12 7 14 17 12 10 12 12 10 14 21 22 32 53 62 47 40 51 54 55 56 58 60 58 56 53 54 56 61 67 68 66 66 66 71 73 75 74 74 76 76 72 70 71
29 29 19 24 20 9 7 8 12 13 12 11 11 10 10 17 31 45 50 52 60 65 54 56 55 57 60 62 60 58 56 54 60 67 72 71 70 67 68 71 74 73 73 74 76 73 70 71 74
29 28 28 21 21 20 11 13 15 14 11 12 11 10 10 13 33 46 50 52 60 64 55 54 54 56 60 62 61 59 59 56 57 69 75 74 71 70 72 75 76 73 73 73 76 74 74 74 74
30 27 17 30 30 26 22 18 16 14 14 13 12 11 12 11 34 52 48 51 79 65 58 54 52 55 61 64 63 62 63 60 58 62 66 70 72 73 75 77 74 74 72 76 77 73 76 75 75
19 30 24 23 22 25 19 15 16 15 14 13 14 13 13 22 42 36 61 61 78 78 64 54 54 58 65 66 66 66 67 64 61 63 61 66 67 71 75 74 75 76 76 77 73 72 73 75 78
18 25 23 28 27 24 19 17 19 18 18 16 13 15 14 19 42 40 52 71 70 69 62 58 62 66 67 66 65 69 72 69 64 64 65 67 68 73 73 73 76 77 76 75 71 69 70 77 82
32 32 37 30 26 25 20 17 17 18 18 16 14 18 18 20 55 61 66 66 75 66 70 66 75 79 77 68 67 71 76 74 70 67 67 69 71 74 75 75 76 77 78 73 70 73 76 82 84
36 32 34 30 30 25 22 23 21 20 22 22 20 20 20 60 59 78 84 90 77 79 74 90 94 80 72 69 72 76 80 80 77 73 71 72 87 82 81 83 76 77 75 70 72 80 82 85 86
28 38 29 26 26 29 29 31 28 27 27 26 25 22 28 24 39 57 68 69 86 96 99 99 98 87 76 74 77 90 90 90 93 92 82 92 93 90 95 82 77 76 73 71 76 80 84 90 98
24 20 26 22 23 20 21 19 18 21 23 22 27 19 17 17 19 29 62 67 69 81 96 100 100 96 75 81 88 100 100 98 92 97 96 95 94 80 83 89 90 81 76 82 83 86 91 89 95
32 28 25 24 23 18 18 16 16 16 18 16 15 15 17 15 14 13 29 59 65 73 83 98 100 100 84 85 96 100 98 100 91 89 87 86 87 84 85 95 97 91 77 78 86 86 68 70 85
23 20 22 21 19 17 18 18 17 16 12 14 13 13 14 14 14 14 15 27 58 68 76 93 99 100 100 92 100 99 99 100 100 91 89 91 95 88 90 95 96 94 74 82 83 84 75 71 77
24 22 22 22 22 22 22 17 17 14 12 13 12 11 10 14 15 16 17 21 54 66 71 82 86 99 100 99 100 100 99 98 99 97 87 90 95 98 94 96 94 98 88 84 86 90 86 84 83
24 28 23 21 20 22 18 19 17 14 14 14 13 12 11 11 12 15 16 18 23 56 69 60 64 88 94 99 99 100 96 86 90 92 90 92 93 98 100 99 99 97 90 84 90 88 84 87 84
28 28 31 23 20 21 24 33 21 18 18 21 19 17 15 14 10 12 14 18 19 35 63 82 58 75 96 97 100 97 92 83 96 95 93 92 91 91 99 100 98 99 94 98 93 86 94 97 96
37 35 32 27 22 24 29 34 24 22 24 26 22 18 16 17 16 14 15 16 18 24 54 80 84 70 85 96 98 94 88 92 95 94 92 87 84 92 97 100 98 98 98 99 99 90 91 97 96
34 35 32 34 23 26 32 33 26 21 23 25 24 21 19 17 16 14 17 23 24 22 51 72 87 81 82 94 100 98 100 96 96 92 92 87 79 84 98 100 100 98 98 100 100 99 99 98 93
37 42 41 34 29 38 36 31 29 31 31 29 25 25 24 20 17 15 41 64 62 39 54 74 88 90 93 94 97 97 98 99 100 95 98 89 87 83 92 99 100 99 98 98 99 99 99 100 100
43 48 48 40 33 33 34 39 35 36 36 32 28 23 23 23 21 20 64 73 78 78 78 80 88 93 95 89 92 93 98 98 100 100 100 97 84 81 89 94 99 100 97 98 98 98 100 100 99
47 51 47 47 36 38 45 46 34 28 27 27 26 38 37 54 45 64 68 78 82 83 83 86 96 94 99 95 97 98 98 98 100 100 100 99 90 80 85 93 95 98 100 97 99 100 100 100 100
63 42 42 46 54 60 46 74 42 40 49 74 76 79 82 81 75 73 74 78 84 87 88 88 100 99 99 99 99 99 94 96 97 97 100 97 99 94 90 84 89 93 99 98 98 99 99 100 98
39 42 47 51 59 64 48 81 45 64 93 100 98 91 88 87 85 82 79 83 85 87 88 89 94 100 100 100 100 100 97 94 94 99 100 98 99 100 87 90 95 96 99 100 100 100 100 99 98
44 55 52 55 68 81 54 67 56 95 100 98 100 96 94 90 87 83 80 82 86 88 89 89 88 92 99 100 100 99 99 98 98 99 100 100 100 100 99 98 98 98 100 100 99 97 99 100 100
57 55 69 66 73 65 78 90 95 100 98 100 99 99 97 94 94 92 89 86 88 90 91 87 89 92 96 97 99 100 100 100 97 98 98 99 99 100 100 100 99 100 100 100 99 99 100 100 100
51 52 73 89 67 73 84 90 92 100 87 94 96 100 96 96 92 95 93 90 90 93 94 94 91 92 95 99 99 96 96 100 100 100 98 98 99 100 100 100 100 99 100 100 99 100 100 100 100
58 66 51 93 78 90 92 94 100 75 86 88 97 95 97 100 96 94 91 92 92 95 97 96 96 96 98 100 100 99 99 97 98 99 100 99 100 100 99 99 100 100 99 100 100 99 100 100 100
55 54 96 90 90 78 90 86 92 91 96 94 94 96 96 97 96 96 91 90 91 94 96 98 96 97 99 100 100 100 99 100 99 98 94 100 100 100 100 99 99 100 100 100 100 99 100 100 100
58 73 97 98 82 90 87 92 100 99 99 96 97 97 97 96 97 97 97 90 91 92 95 98 98 98 99 100 100 100 100 99 100 100 100 99 100 100 100 100 100 99 99 100 100 100 100 100 100
63 70 86 92 83 90 91 94 100 100 99 95 96 97 97 97 98 98 100 94 92 93 95 97 98 99 100 100 100 100 100 100 100 100 100 100 100 100 100 99 100 100 100 99 100 100 100 100 100

GFSSGP_925_rhum_123.txt.gz
RH
20 22 14 12 13 8 7 5 3 4 4 5 6 5 6 5 8 13 11 32 34 33 69 58 64 62 54 53 53 53 56 60 66 62 59 58 57 60 62 71 71 74 80 81 74 73 72 73 71
20 15 14 13 14 10 7 4 4 5 4 5 4 4 5 8 10 10 15 25 35 38 58 76 63 58 53 52 53 52 51 60 65 66 63 61 62 64 68 73 76 78 78 75 74 75 79 74 71
23 16 15 14 14 13 9 6 5 5 5 5 5 5 5 8 8 13 21 33 43 39 53 66 62 57 53 52 51 51 48 50 60 67 68 65 63 67 69 74 76 72 72 71 75 75 78 75 74
16 13 13 17 15 11 10 7 6 7 6 5 6 8 6 6 13 17 23 37 44 41 50 63 67 58 56 53 53 53 51 50 54 64 70 68 65 68 70 75 74 73 72 72 76 75 74 73 74
14 13 16 16 14 11 9 9 9 10 9 9 9 11 10 9 16 23 29 34 45 43 50 74 69 63 58 56 56 54 54 55 56 64 71 71 68 70 70 73 76 75 73 76 74 75 74 75 77
12 10 14 13 10 8 9 10 9 10 10 10 11 12 11 9 20 24 31 40 48 46 54 75 89 70 63 59 58 56 55 57 61 66 69 71 69 69 70 76 79 76 75 78 79 75 74 76 76
14 10 11 9 8 7 7 7 9 10 10 10 10 14 12 11 21 18 22 40 55 59 60 66 92 94 70 64 62 61 59 59 64 68 70 72 70 70 75 77 79 79 78 78 78 74 75 75 76
11 9 12 8 8 8 7 7 9 9 11 11 10 14 16 14 18 16 16 20 48 64 70 71 81 86 88 88 69 66 64 63 68 72 74 78 75 72 76 79 82 81 80 78 76 75 77 76 77
8 9 7 6 6 7 7 9 11 10 10 8 8 12 11 12 15 13 13 16 18 50 66 72 72 75 78 80 89 74 71 69 69 75 77 79 82 86 87 85 85 82 82 80 77 76 77 78 82
7 7 6 4 6 10 10 11 9 7 6 5 6 6 6 8 8 8 10 12 14 17 48 68 71 70 71 66 76 91 89 86 88 87 90 84 72 75 73 77 84 81 83 82 77 75 77 79 82
6 6 5 5 6 6 7 7 6 6 6 6 6 6 6 6 7 7 7 8 11 12 16 56 67 84 84 65 66 73 69 73 77 80 80 79 70 72 72 82 89 92 89 90 82 81 87 75 65
13 8 6 6 7 8 9 8 8 8 8 7 7 7 7 7 6 6 6 6 8 10 12 29 62 84 89 86 71 71 59 63 63 70 78 76 74 78 78 76 75 80 85 75 77 74 69 65 69
9 8 8 8 8 9 9 10 10 10 8 7 7 7 8 7 7 6 6 6 6 8 11 15 41 70 82 95 62 66 64 69 57 67 80 81 76 78 76 75 74 79 78 72 70 69 70 69 69
10 11 10 10 9 9 10 9 9 9 7 7 7 8 8 8 8 8 8 9 9 8 9 13 19 54 70 80 72 64 62 70 79 80 82 85 85 81 77 74 74 77 78 74 72 71 72 68 66
13 14 11 9 8 10 9 12 9 7 7 8 8 9 9 9 9 9 10 11 10 10 9 10 16 37 66 72 72 62 62 75 92 88 85 86 88 81 68 72 77 80 76 73 73 75 73 68 64
14 13 14 8 8 9 11 15 9 7 8 9 8 8 8 8 8 9 9 10 10 9 9 10 11 16 60 75 72 63 62 78 90 94 88 86 88 85 79 65 71 77 78 78 77 79 74 71 67
12 12 10 10 8 10 12 13 9 10 10 11 11 11 11 12 11 11 11 11 10 10 9 11 12 16 34 75 75 70 63 74 74 78 90 92 92 90 87 67 78 79 82 86 82 79 75 75 72
14 14 14 14 11 12 13 14 11 11 12 15 19 23 25 26 24 24 18 13 11 11 11 12 13 15 21 68 78 71 66 67 68 63 64 95 94 95 94 88 89 88 91 92 86 83 79 75 74
19 21 19 15 13 17 16 14 13 13 23 30 30 31 33 37 35 37 36 29 18 13 14 14 15 19 26 53 78 75 65 66 64 53 53 90 96 97 99 96 95 91 94 96 94 90 82 77 75
24 26 23 16 13 15 17 19 15 15 28 28 31 34 39 49 51 49 51 51 38 46 39 34 33 38 39 30 72 73 62 58 57 51 52 66 96 96 99 98 99 96 96 96 97 94 91 81 77
23 26 25 21 16 16 19 19 16 19 23 30 31 36 40 51 61 70 68 68 63 62 65 55 52 41 42 43 56 69 60 53 50 48 52 64 83 98 99 96 99 98 99 94 95 95 92 84 85
32 20 20 22 26 31 20 39 20 29 34 40 40 45 51 53 56 69 84 88 78 78 80 78 70 56 51 72 80 66 59 48 48 47 51 59 71 96 99 98 100 98 99 97 97 96 96 89 94
29 26 30 31 35 35 28 32 24 36 56 55 53 56 56 58 61 67 77 91 95 89 90 92 87 81 88 97 90 64 66 50 51 51 52 56 70 78 98 99 99 99 97 97 95 94 94 92 88
29 34 30 30 30 43 27 31 36 71 76 68 66 64 62 70 72 62 71 86 97 98 97 98 94 94 100 99 92 60 68 56 52 55 58 62 80 77 81 96 96 97 99 98 96 93 95 93 93
32 33 44 37 52 43 26 31 72 51 53 63 75 79 64 67 77 78 80 95 98 98 98 99 96 96 100 99 100 98 81 69 64 73 69 79 92 88 76 82 93 98 100 100 96 96 97 95 98
33 33 43 57 48 42 30 48 85 44 48 55 57 78 67 73 81 91 98 98 98 100 100 100 99 100 99 100 100 100 99 99 96 84 89 94 91 96 94 94 87 94 98 97 97 98 98 98 98
35 36 37 61 44 65 52 74 62 48 58 68 75 72 82 88 94 98 96 98 98 100 100 100 99 100 100 100 100 100 100 100 96 99 85 98 100 100 96 97 97 99 100 99 97 100 95 96 98
35 28 54 64 88 69 46 89 84 88 89 91 94 92 94 88 91 96 95 97 98 99 100 100 100 99 100 100 100 100 100 100 100 99 98 100 99 99 98 100 99 100 99 99 99 100 97 94 95
35 47 54 54 51 76 70 92 84 95 95 93 95 99 98 97 98 96 96 97 98 97 98 97 96 96 98 99 99 100 100 100 100 98 98 99 100 99 100 100 98 97 99 99 100 99 100 100 98
29 40 44 85 62 90 99 96 79 74 74 82 93 100 99 95 99 98 96 97 96 96 98 99 100 99 100 98 98 98 100 99 100 99 100 100 100 100 100 100 100 100 99 99 99 100 100 100 100

GFSSGP_925_rhum_129.txt.gz
RH
18 21 26 28 28 28 24 16 9 8 8 6 5 6 6 10 17 50 31 39 44 50 50 56 53 49 48 48 49 48 50 56 57 60 54 46 46 46 46 50 55 54 68 70 66 67 68 67 65
17 18 22 24 32 35 28 13 9 7 6 6 6 7 6 15 24 33 36 41 46 58 52 55 56 53 52 50 52 52 53 58 59 63 58 50 48 48 48 53 53 70 76 77 74 71 72 69 70
24 25 26 31 33 35 27 13 7 6 7 6 7 6 8 11 27 32 38 43 55 61 60 58 59 59 55 51 53 55 56 58 60 64 60 54 52 51 51 57 59 66 74 73 70 72 76 73 71
27 21 24 29 28 23 19 14 9 10 8 7 8 11 22 21 23 22 40 35 52 75 67 63 60 64 61 54 56 58 60 61 60 65 63 58 57 54 54 59 61 69 72 71 74 72 74 74 71
26 25 30 30 27 20 14 10 11 11 11 13 14 17 30 20 16 15 15 18 42 65 70 67 64 57 59 56 58 58 57 57 60 66 67 63 61 59 59 62 67 68 70 74 74 72 73 73 73
22 23 27 27 18 12 10 11 12 12 14 13 14 17 29 18 16 13 12 11 24 52 72 72 69 65 58 56 60 59 57 54 54 62 67 68 66 63 63 65 71 70 70 74 73 73 73 73 73
20 25 25 21 17 13 10 11 14 15 14 11 10 14 23 19 9 8 8 10 10 45 57 78 74 74 66 60 61 62 60 56 55 59 66 69 70 67 68 69 73 75 74 74 74 73 75 75 74
12 16 13 12 12 12 10 10 10 8 12 7 7 12 11 15 7 7 6 7 7 16 25 57 73 70 70 65 64 66 65 61 60 62 68 72 73 72 72 73 76 78 77 77 74 75 75 75 74
7 16 19 13 8 7 7 8 8 7 7 8 6 6 9 7 8 7 7 7 6 6 7 43 67 73 75 65 65 68 69 67 66 71 76 79 80 78 78 77 79 81 80 78 76 76 75 75 74
10 15 13 10 7 7 8 8 8 8 9 8 8 10 8 7 8 10 10 9 7 7 6 12 56 76 80 75 71 68 70 71 70 76 79 80 82 80 78 78 80 81 82 82 80 77 75 76 71
8 11 9 9 10 8 8 8 9 9 10 10 12 12 12 9 9 9 9 8 9 8 9 9 10 36 74 77 83 83 78 69 71 77 86 80 84 82 81 82 87 89 86 86 84 81 78 74 68
9 9 8 9 8 8 9 9 10 10 12 11 12 11 11 10 9 10 10 9 9 9 10 10 10 10 40 69 71 74 84 78 70 72 86 87 86 91 84 83 85 89 83 83 81 77 73 68 82
11 10 9 9 10 9 9 11 11 13 12 9 9 9 9 10 10 11 24 28 29 24 17 13 9 10 10 24 62 66 68 86 81 76 80 87 84 83 85 84 86 84 83 80 82 77 70 65 78
13 14 14 12 12 11 11 12 9 11 10 10 8 8 9 18 36 40 42 42 44 46 46 40 36 22 10 13 34 61 64 70 83 82 78 85 81 76 81 80 81 82 83 80 79 77 68 71 78
15 17 15 13 12 13 11 11 12 11 10 9 10 24 30 31 37 40 42 45 50 52 54 58 57 49 34 13 21 42 65 64 73 76 77 76 81 77 83 79 81 80 82 78 84 79 74 74 74
18 19 22 16 14 11 11 17 11 10 9 10 33 30 32 34 36 37 40 47 52 57 62 62 61 64 52 47 26 12 37 63 66 69 73 74 75 78 83 79 79 80 83 77 81 78 78 74 70
24 29 23 18 11 11 12 15 11 10 11 30 35 35 34 36 38 38 43 48 52 58 64 67 66 69 67 58 49 35 17 60 61 66 69 76 75 75 84 79 78 80 80 75 77 78 73 71 66
24 21 18 17 14 16 18 18 14 13 27 36 39 41 42 43 42 42 47 50 52 57 62 67 72 74 72 69 65 53 46 32 61 66 72 73 80 79 84 82 78 80 81 76 74 74 73 69 66
19 20 20 18 16 19 21 18 17 19 38 44 48 50 51 50 45 47 52 54 56 58 62 67 73 79 80 78 76 79 78 54 77 54 69 80 74 79 79 86 84 80 81 76 74 72 71 77 74
19 24 27 23 18 18 21 22 31 38 44 49 54 57 57 54 52 54 56 59 61 63 63 65 72 82 85 83 83 81 78 71 48 64 69 72 83 73 84 90 83 82 84 80 75 68 79 78 78
21 22 26 26 22 22 26 29 46 45 44 46 51 56 56 59 62 61 62 64 66 68 70 72 76 82 88 89 85 85 78 72 80 48 66 73 85 77 86 92 86 87 87 83 77 77 78 88 83
30 20 24 30 37 49 28 54 50 52 53 54 60 66 65 64 64 65 67 69 73 78 80 79 85 90 92 95 98 95 97 93 90 88 66 73 80 84 93 90 82 86 88 89 82 84 84 86 89
22 27 30 34 42 45 41 57 61 56 73 67 70 72 71 69 69 71 72 76 80 84 87 89 92 96 97 100 97 92 91 92 95 87 81 70 82 90 92 90 84 85 85 93 93 86 75 78 82
25 31 35 36 42 72 42 42 83 82 80 77 74 79 73 70 66 69 76 81 84 89 96 97 96 99 100 100 99 100 100 100 93 91 86 78 73 98 97 96 92 84 90 84 84 80 79 82 84
30 39 77 73 74 66 37 55 83 74 74 76 80 84 70 69 72 79 85 86 87 96 100 100 100 99 100 100 100 100 100 100 95 92 88 87 78 77 97 99 96 93 91 93 90 88 86 86 83
35 37 67 74 87 79 42 68 93 69 67 66 65 75 73 74 83 85 87 88 92 99 100 100 100 100 100 100 100 100 98 100 97 90 92 94 72 72 98 99 98 97 94 98 94 94 94 90 89
32 40 32 56 59 86 83 77 76 65 73 70 78 75 83 87 87 90 89 88 95 99 100 100 100 100 100 100 100 98 99 100 100 100 99 88 77 84 95 100 100 99 100 97 91 98 93 91 88
31 29 63 79 89 89 69 98 98 96 92 86 92 90 87 88 89 89 89 90 98 99 100 99 100 100 100 100 100 100 99 100 100 100 100 97 95 87 80 99 100 100 98 88 87 92 92 90 89
35 41 60 72 74 93 96 91 87 97 96 94 92 87 93 95 94 92 92 93 97 99 100 99 100 100 100 100 100 100 100 100 100 100 100 98 100 94 85 100 98 99 100 100 100 100 99 97 95
33 42 54 89 71 86 93 96 85 82 81 79 86 87 93 93 94 94 94 93 94 97 99 100 99 99 100 100 99 100 100 100 100 100 100 99 100 100 98 100 97 90 100 100 100 100 100 100 100

GFSSGP_925_rhum_132.txt.gz
RH
17 18 20 25 27 31 27 17 10 8 7 6 6 10 18 24 39 60 34 51 58 54 53 54 49 49 52 51 46 48 48 51 55 54 48 47 44 42 46 52 56 53 60 66 63 65 69 69 65
22 22 22 29 36 38 30 18 8 8 6 7 7 9 23 39 37 43 48 61 60 59 56 54 51 51 54 54 50 50 52 52 57 58 52 49 47 44 46 51 51 66 71 69 66 66 67 65 66
23 28 28 35 42 37 30 19 19 8 10 9 7 25 29 33 29 40 52 63 72 66 60 55 54 57 59 55 54 55 59 58 59 61 57 52 50 46 47 52 56 74 73 72 70 69 70 70 68
22 24 28 32 34 26 21 18 14 10 15 15 18 33 26 22 21 15 24 59 64 71 70 69 64 60 57 56 56 54 61 61 62 64 61 57 54 51 50 56 60 68 70 71 74 73 73 72 68
27 29 34 34 30 22 12 15 15 17 16 15 21 31 29 20 11 10 10 13 56 58 70 69 69 66 63 57 56 57 60 64 68 65 66 62 59 55 54 59 62 69 70 73 74 73 74 73 69
23 26 30 29 22 16 11 14 11 15 11 11 13 30 27 12 7 7 7 8 43 51 49 62 68 71 66 60 57 56 59 62 69 69 70 68 64 61 58 61 66 70 70 74 73 75 74 72 70
21 28 27 22 20 12 10 12 11 11 9 9 8 22 22 12 7 6 7 6 6 22 64 51 53 70 70 68 60 60 57 61 64 68 72 75 71 67 64 65 68 70 71 74 74 75 75 74 73
17 18 15 14 14 11 8 9 8 8 10 8 7 10 15 11 8 7 6 6 6 6 10 19 72 69 73 71 65 60 62 62 65 67 68 78 80 74 69 70 73 73 74 75 76 76 76 76 75
10 17 20 15 8 7 7 8 8 7 8 8 8 9 10 10 9 7 8 8 8 7 10 12 43 84 86 76 69 64 62 64 66 72 72 82 89 83 77 75 75 76 76 76 76 78 77 77 77
11 17 13 12 8 9 8 8 9 8 10 9 11 12 8 7 10 10 12 15 17 15 20 24 19 14 22 80 78 67 64 62 65 69 75 84 88 86 81 78 78 79 79 78 79 79 76 78 75
9 12 9 8 9 8 9 9 9 10 11 10 12 12 12 10 16 33 40 43 45 42 28 35 35 25 29 20 51 83 74 69 67 66 73 77 89 92 89 84 87 87 85 84 84 84 78 74 74
12 10 9 9 9 9 9 9 10 9 11 12 13 12 15 35 46 45 46 48 44 43 44 35 39 40 29 24 28 22 74 75 76 70 68 77 89 94 91 87 88 90 86 84 84 83 76 76 71
12 11 14 14 13 12 10 10 10 12 12 12 10 28 43 44 44 44 46 49 48 46 40 33 36 42 45 37 27 34 26 54 72 77 72 72 84 89 91 88 88 90 88 83 82 80 77 75 71
16 18 17 15 14 13 12 12 11 12 12 12 35 41 44 43 42 44 49 51 52 53 51 41 30 43 41 43 39 33 36 57 60 72 78 73 75 85 95 93 89 87 88 82 78 77 78 73 70
18 18 18 16 14 13 13 14 13 12 12 35 38 39 41 40 42 46 49 51 52 56 57 59 54 42 51 49 48 43 41 39 78 55 71 81 74 80 89 97 92 88 86 84 81 78 78 72 72
22 21 24 18 15 14 13 19 13 11 24 41 42 42 43 44 45 47 52 54 54 55 57 58 62 62 48 60 56 53 46 49 48 59 47 75 81 75 84 94 93 86 86 85 84 81 80 76 78
27 30 27 21 13 11 12 16 13 18 38 46 51 52 49 49 48 50 54 56 58 59 60 61 63 65 69 59 66 63 57 50 86 68 77 64 81 79 74 92 92 86 83 86 84 85 80 82 79
26 28 22 19 14 17 19 21 18 43 49 55 60 58 56 54 53 54 58 60 61 62 63 64 66 69 72 77 78 76 68 58 49 61 68 77 70 82 71 81 91 86 86 86 84 87 84 78 78
28 26 22 21 19 20 22 20 41 55 58 63 64 64 60 59 55 58 61 63 65 67 69 71 74 73 76 78 83 84 85 81 60 55 61 66 76 72 82 78 85 86 89 84 84 86 84 84 74
29 23 26 25 21 22 22 36 55 54 59 63 66 67 65 64 62 62 64 67 70 73 77 80 80 80 82 86 88 90 89 86 88 56 55 68 62 79 77 83 84 89 93 91 91 88 90 89 73
26 24 24 26 28 29 29 36 59 53 55 59 63 64 66 69 70 67 66 71 75 79 82 84 89 92 90 92 96 95 95 96 92 84 68 65 71 71 83 92 86 90 93 96 93 88 85 88 83
33 22 24 33 41 49 35 59 61 60 68 69 72 75 74 72 69 66 70 76 81 83 85 92 92 92 95 94 94 95 93 91 92 96 88 75 62 64 77 90 93 84 81 98 94 89 86 84 85
26 26 31 33 40 46 42 66 62 61 73 80 78 78 75 72 73 74 76 80 84 84 90 93 96 95 97 99 100 97 97 90 86 92 98 82 72 62 60 84 98 94 83 99 95 95 88 82 81
25 31 38 41 47 75 48 55 79 89 89 80 79 78 77 75 76 78 79 83 81 86 91 96 98 99 98 100 100 100 98 92 87 91 97 90 86 81 75 68 83 99 92 99 95 93 90 89 84
28 46 75 77 84 74 44 60 90 85 81 82 84 83 81 81 85 85 86 87 85 87 92 97 99 98 98 100 100 100 100 100 100 97 95 97 90 82 83 67 75 89 98 99 99 96 90 91 88
36 44 70 75 80 78 44 61 91 78 70 71 72 80 76 85 82 86 88 90 90 93 96 100 100 100 100 100 100 100 100 100 99 96 99 94 94 95 81 74 61 80 90 94 94 96 84 87 81
35 45 35 59 62 88 80 87 75 72 78 83 84 75 86 83 84 89 91 90 91 97 100 100 100 100 99 100 100 100 100 100 100 100 99 99 97 91 76 73 66 61 70 93 85 93 96 84 80
30 30 55 80 77 91 85 91 95 94 95 91 93 92 93 90 90 90 91 92 92 98 100 100 100 100 100 100 100 100 100 100 99 100 99 100 99 99 87 72 73 88 100 95 99 98 96 88 98
41 45 57 64 80 90 96 88 88 91 96 96 93 90 96 96 94 92 90 94 91 93 96 97 99 100 100 100 100 100 100 100 99 100 100 100 100 98 83 75 90 93 97 100 100 100 100 100 98
39 49 52 86 75 88 93 90 88 91 87 81 86 85 94 93 92 88 90 91 90 90 94 99 99 100 100 100 100 100 100 99 99 100 100 100 100 100 100 98 80 88 97 100 98 100 100 99 99